KC8P Weather Reports


Display with metric or nautical units.
time (UTC)temp
F
wind
direction
speed
MPH
gust
MPH
rain 1hr
in
rain 24hr
in
rain mn
in
humidity
%
barometer
mb
20260509000511 61 229 2.0 3.0 0.00 0.00 0.00 42 1006.6
20260509000406 61 257 3.0 4.0 0.00 0.00 0.00 41 1006.1
20260509000303 61 150 1.0 4.0 0.00 0.00 0.00 50 1006.6
20260509000155 62 148 1.0 4.0 0.00 0.00 0.00 48 1006.1
20260509000107 62 202 3.0 4.0 0.00 0.00 0.00 46 1006.6
20260508235944 62 188 3.0 4.0 0.00 0.00 0.00 38 1006.6
20260508235838 62 173 1.0 4.0 0.00 0.00 0.00 38 1006.1
20260508235731 62 213 2.0 4.0 0.00 0.00 0.00 38 1006.1
20260508235626 62 232 0.0 4.0 0.00 0.00 0.00 38 1006.6
20260508235600 62 245 0.0 4.0 0.00 0.00 0.00 38 1006.6
20260508235520 62 208 4.0 4.0 0.00 0.00 0.00 38 1006.1
20260508235415 62 204 2.0 4.0 0.00 0.00 0.00 38 1006.6
20260508235309 62 342 1.0 4.0 0.00 0.00 0.00 38 1006.6
20260508235204 62 1 2.0 4.0 0.00 0.00 0.00 39 1006.1
20260508235110 62 226 2.0 4.0 0.00 0.00 0.00 38 1006.6
20260508234951 62 203 3.0 4.0 0.00 0.00 0.00 38 1006.6
20260508234845 62 253 2.0 3.0 0.00 0.00 0.00 38 1006.1
20260508234740 62 170 2.0 3.0 0.00 0.00 0.00 37 1006.6
20260508234634 62 329 1.0 2.0 0.00 0.00 0.00 38 1006.1
20260508234547 62 231 1.0 2.0 0.00 0.00 0.00 38 1006.1
20260508234529 62 183 0.0 3.0 0.00 0.00 0.00 38 1006.6
20260508234423 62 262 1.0 3.0 0.00 0.00 0.00 38 1006.6
20260508234318 62 350 0.0 3.0 0.00 0.00 0.00 39 1006.1
20260508234212 62 349 0.0 3.0 0.00 0.00 0.00 38 1006.6
20260508234106 62 329 1.0 3.0 0.00 0.00 0.00 38 1006.6
20260508234040 62 317 1.0 3.0 0.00 0.00 0.00 37 1006.1
20260508234001 62 300 0.0 3.0 0.00 0.00 0.00 38 1006.1
20260508233855 62 254 0.0 3.0 0.00 0.00 0.00 38 1006.6
20260508233751 62 255 0.0 3.0 0.00 0.00 0.00 37 1006.1
20260508233645 63 255 1.0 3.0 0.00 0.00 0.00 37 1006.6
20260508233539 63 191 1.0 3.0 0.00 0.00 0.00 37 1006.1
20260508233436 63 343 0.0 3.0 0.00 0.00 0.00 37 1006.1
20260508233330 63 342 2.0 3.0 0.00 0.00 0.00 37 1006.6
20260508233224 63 322 1.0 3.0 0.00 0.00 0.00 37 1006.6
20260508233119 63 313 0.0 3.0 0.00 0.00 0.00 36 1006.6
20260508233031 64 309 0.0 3.0 0.00 0.00 0.00 37 1006.6
20260508233014 64 306 1.0 3.0 0.00 0.00 0.00 36 1006.6
20260508232909 64 170 1.0 3.0 0.00 0.00 0.00 36 1006.6
20260508232803 64 262 1.0 2.0 0.00 0.00 0.00 36 1006.6
20260508232657 64 268 0.0 2.0 0.00 0.00 0.00 35 1006.6
20260508232551 64 359 0.0 2.0 0.00 0.00 0.00 36 1006.6
20260508232524 64 359 0.0 2.0 0.00 0.00 0.00 36 1006.1
20260508232446 64 346 0.0 2.0 0.00 0.00 0.00 36 1006.6
20260508232340 64 339 0.0 2.0 0.00 0.00 0.00 37 1006.6
20260508232234 64 339 0.0 2.0 0.00 0.00 0.00 36 1006.6
20260508232129 64 349 0.0 2.0 0.00 0.00 0.00 36 1006.1
20260508232024 64 0.0 0.0 0.00 0.00 0.00 35
20260508225855 64 302 2.0 8.0 0.00 0.00 0.00 36 1006.6
20260508225807 64 232 2.0 8.0 0.00 0.00 0.00 36 1006.6
20260508225748 64 226 2.0 8.0 0.00 0.00 0.00 35 1006.6
20260508225643 64 210 0.0 8.0 0.00 0.00 0.00 35 1006.9
20260508225538 64 200 2.0 8.0 0.00 0.00 0.00 35 1006.6
20260508225432 64 267 1.0 8.0 0.00 0.00 0.00 35 1006.6
20260508225326 64 303 6.0 8.0 0.00 0.00 0.00 34 1006.6
20260508225300 64 241 3.0 7.0 0.00 0.00 0.00 36 1006.6
20260508225221 64 190 2.0 7.0 0.00 0.00 0.00 36 1006.9
20260508225114 64 259 1.0 7.0 0.00 0.00 0.00 35 1006.6
20260508225009 65 139 3.0 7.0 0.00 0.00 0.00 35 1006.6
20260508224903 65 227 2.0 7.0 0.00 0.00 0.00 34 1006.6
20260508224758 65 220 1.0 7.0 0.00 0.00 0.00 34 1006.9
20260508224650 64 231 2.0 7.0 0.00 0.00 0.00 35 1006.9
20260508224544 65 331 3.0 7.0 0.00 0.00 0.00 36 1006.6
20260508224439 65 63 3.0 7.0 0.00 0.00 0.00 35 1006.6
20260508224333 65 291 5.0 7.0 0.00 0.00 0.00 34 1006.9
20260508224245 65 220 1.0 6.0 0.00 0.00 0.00 35 1006.9
20260508224228 65 253 1.0 6.0 0.00 0.00 0.00 34 1006.9
20260508224122 64 308 2.0 6.0 0.00 0.00 0.00 34 1006.6
20260508224029 64 212 1.0 6.0 0.00 0.00 0.00 35 1006.9
20260508223911 64 242 2.0 6.0 0.00 0.00 0.00 34 1006.9
20260508223805 64 269 2.0 6.0 0.00 0.00 0.00 36 1006.9
20260508223738 64 269 2.0 6.0 0.00 0.00 0.00 36 1006.6
20260508223700 64 195 2.0 6.0 0.00 0.00 0.00 37 1006.6
20260508223554 65 194 5.0 6.0 0.00 0.00 0.00 35 1006.9
20260508223448 65 152 2.0 6.0 0.00 0.00 0.00 40 1006.9
20260508223343 65 201 1.0 6.0 0.00 0.00 0.00 36 1006.6
20260508223237 65 251 3.0 6.0 0.00 0.00 0.00 36 1006.9
20260508223131 65 238 3.0 7.0 0.00 0.00 0.00 36 1006.9
20260508223026 66 161 3.0 7.0 0.00 0.00 0.00 35 1006.6
20260508222921 65 241 3.0 7.0 0.00 0.00 0.00 36 1006.9
20260508222815 64 233 0.0 7.0 0.00 0.00 0.00 36 1006.9
20260508222727 64 234 0.0 8.0 0.00 0.00 0.00 38 1006.6
20260508222707 64 233 0.0 8.0 0.00 0.00 0.00 36 1006.6
20260508222600 64 200 2.0 8.0 0.00 0.00 0.00 36 1006.9
20260508222454 64 234 3.0 8.0 0.00 0.00 0.00 36 1006.9
20260508222348 64 181 2.0 8.0 0.00 0.00 0.00 36 1006.9
20260508222242 64 119 2.0 8.0 0.00 0.00 0.00 36 1006.9
20260508222227 64 147 3.0 8.0 0.00 0.00 0.00 36 1006.9
20260508222137 64 191 6.0 8.0 0.00 0.00 0.00 36 1006.9
20260508222031 64 258 4.0 8.0 0.00 0.00 0.00 36 1006.9
20260508221926 65 176 3.0 8.0 0.00 0.00 0.00 36 1006.9
20260508221820 65 185 6.0 8.0 0.00 0.00 0.00 35 1006.9
20260508221721 64 310 3.0 7.0 0.00 0.00 0.00 37 1006.9
20260508221715 64 275 1.0 7.0 0.00 0.00 0.00 36 1006.9
20260508221622 64 265 1.0 10.0 0.00 0.00 0.00 36 1006.9
20260508221503 64 144 3.0 10.0 0.00 0.00 0.00 36 1006.9
20260508221357 64 142 1.0 10.0 0.00 0.00 0.00 36 1006.6
20260508221251 64 202 3.0 10.0 0.00 0.00 0.00 35 1006.6
20260508221214 65 256 2.0 10.0 0.00 0.00 0.00 35 1006.6
20260508221146 65 143 4.0 10.0 0.00 0.00 0.00 35 1006.6
20260508221040 64 268 2.0 10.0 0.00 0.00 0.00 35 1006.6
20260508220935 64 238 3.0 10.0 0.00 0.00 0.00 36 1006.6
20260508220829 64 201 4.0 10.0 0.00 0.00 0.00 36 1006.9
20260508220724 64 181 4.0 10.0 0.00 0.00 0.00 35 1006.9
20260508220708 64 184 8.0 10.0 0.00 0.00 0.00 35 1006.9
20260508220618 64 227 2.0 10.0 0.00 0.00 0.00 36 1006.9
20260508220512 64 144 2.0 10.0 0.00 0.00 0.00 36 1006.9
20260508220406 64 139 3.0 10.0 0.00 0.00 0.00 36 1006.9
20260508220301 64 230 2.0 10.0 0.00 0.00 0.00 37 1007.3
20260508220201 64 187 8.0 10.0 0.00 0.00 0.00 36 1006.9
20260508220155 64 187 8.0 10.0 0.00 0.00 0.00 36 1006.9
20260508215942 65 147 3.0 8.0 0.00 0.00 0.00 36 1006.9
20260508215837 65 246 4.0 8.0 0.00 0.00 0.00 36 1006.9
20260508215731 65 202 4.0 8.0 0.00 0.00 0.00 36 1007.3
20260508215653 65 156 2.0 8.0 0.00 0.00 0.00 36 1007.3
20260508215625 65 227 2.0 8.0 0.00 0.00 0.00 37 1006.9
20260508215519 64 187 1.0 8.0 0.00 0.00 0.00 38 1006.9
20260508215414 64 197 3.0 13.0 0.00 0.00 0.00 36 1006.9
20260508215309 63 172 1.0 13.0 0.00 0.00 0.00 37 1006.9
20260508215203 63 206 1.0 13.0 0.00 0.00 0.00 37 1006.9
20260508215148 63 189 4.0 13.0 0.00 0.00 0.00 37 1006.9
20260508215058 64 193 7.0 13.0 0.00 0.00 0.00 36 1007.3
20260508214952 63 160 7.0 13.0 0.00 0.00 0.00 36 1007.3
20260508214847 63 180 3.0 13.0 0.00 0.00 0.00 37 1006.9
20260508214740 63 205 4.0 13.0 0.00 0.00 0.00 37 1007.3
20260508214641 63 179 3.0 13.0 0.00 0.00 0.00 37 1006.9
20260508214634 63 153 2.0 13.0 0.00 0.00 0.00 37 1006.9
20260508214530 64 237 8.0 13.0 0.00 0.00 0.00 37 1007.3
20260508214424 64 178 2.0 4.0 0.00 0.00 0.00 39 1007.3
20260508214318 63 196 0.0 4.0 0.00 0.00 0.00 40 1007.3
20260508214212 63 298 1.0 4.0 0.00 0.00 0.00 38 1007.3
20260508214134 63 230 0.0 4.0 0.00 0.00 0.00 41 1007.3
20260508214107 63 178 2.0 8.0 0.00 0.00 0.00 38 1007.3
20260508214002 64 162 1.0 8.0 0.00 0.00 0.00 37 1007.3
20260508213856 64 155 1.0 8.0 0.00 0.00 0.00 38 1007.3
20260508213750 64 178 2.0 8.0 0.00 0.00 0.00 37 1007.3
20260508213657 63 219 1.0 10.0 0.00 0.00 0.00 44 1007.3
20260508213628 63 215 2.0 10.0 0.00 0.00 0.00 45 1007.3
20260508213539 63 228 1.0 10.0 0.00 0.00 0.00 45 1007.3
20260508213432 63 122 2.0 10.0 0.00 0.00 0.00 45 1007.3
20260508213328 63 172 3.0 10.0 0.00 0.00 0.00 46 1007.3
20260508213221 62 151 2.0 10.0 0.00 0.00 0.00 47 1007.3
20260508213115 62 150 6.0 10.0 0.00 0.00 0.00 43 1007.3
20260508213010 62 176 2.0 10.0 0.00 0.00 0.00 47 1007.3
20260508212905 63 124 4.0 10.0 0.00 0.00 0.00 47 1007.3
20260508212758 64 201 6.0 10.0 0.00 0.00 0.00 46 1007.3
20260508212653 65 200 5.0 10.0 0.00 0.00 0.00 43 1006.9
20260508212616 66 183 5.0 10.0 0.00 0.00 0.00 42 1006.9
20260508212547 66 181 8.0 10.0 0.00 0.00 0.00 40 1006.9
20260508212441 66 340 1.0 8.0 0.00 0.00 0.00 36 1006.6
20260508212336 64 216 1.0 8.0 0.00 0.00 0.00 36 1007.3
20260508212230 64 216 0.0 8.0 0.00 0.00 0.00 37 1007.3
20260508212124 64 154 3.0 9.0 0.00 0.00 0.00 36 1007.3
20260508212109 64 125 2.0 9.0 0.00 0.00 0.00 37 1007.3
20260508212020 64 157 4.0 9.0 0.00 0.00 0.00 37 1007.3
20260508211913 64 205 2.0 9.0 0.00 0.00 0.00 36 1007.3
20260508211808 64 278 3.0 9.0 0.00 0.00 0.00 36 1007.3
20260508211702 64 254 4.0 9.0 0.00 0.00 0.00 36 1007.3
20260508211603 64 274 2.0 9.0 0.00 0.00 0.00 36 1007.3
20260508211557 64 310 2.0 9.0 0.00 0.00 0.00 37 1007.3
20260508211451 64 279 3.0 9.0 0.00 0.00 0.00 36 1007.3
20260508211358 64 280 4.0 9.0 0.00 0.00 0.00 37 1007.3
20260508211240 64 256 4.0 9.0 0.00 0.00 0.00 37 1007.3
20260508211134 63 231 3.0 10.0 0.00 0.00 0.00 37 1007.3
20260508211057 63 288 2.0 10.0 0.00 0.00 0.00 37 1007.3
20260508211028 63 249 3.0 10.0 0.00 0.00 0.00 37 1007.3
20260508210923 62 223 3.0 10.0 0.00 0.00 0.00 37 1007.3
20260508210816 62 234 3.0 10.0 0.00 0.00 0.00 38 1007.3
20260508210711 63 244 6.0 10.0 0.00 0.00 0.00 37 1007.3
20260508210550 64 346 2.0 10.0 0.00 0.00 0.00 37 1007.3
20260508210459 64 284 3.0 10.0 0.00 0.00 0.00 36 1007.3
20260508210354 64 227 3.0 10.0 0.00 0.00 0.00 35 1007.3
20260508210248 64 267 4.0 10.0 0.00 0.00 0.00 36 1007.3
20260508210142 64 290 8.0 10.0 0.00 0.00 0.00 35 1006.9
20260508210043 64 239 4.0 8.0 0.00 0.00 0.00 35 1006.9
20260508210037 64 239 4.0 8.0 0.00 0.00 0.00 35 1007.3
20260508205931 65 216 3.0 8.0 0.00 0.00 0.00 35 1007.6
20260508205826 66 176 5.0 8.0 0.00 0.00 0.00 34 1007.3
20260508205720 66 256 3.0 8.0 0.00 0.00 0.00 34 1007.3
20260508205614 66 339 3.0 8.0 0.00 0.00 0.00 32 1007.3
20260508205536 66 266 1.0 8.0 0.00 0.00 0.00 34 1007.6
20260508205508 66 238 2.0 8.0 0.00 0.00 0.00 34 1007.6
20260508205402 66 134 0.0 8.0 0.00 0.00 0.00 34 1007.3
20260508205256 66 177 3.0 8.0 0.00 0.00 0.00 34 1007.3
20260508205151 66 206 4.0 8.0 0.00 0.00 0.00 34 1007.3
20260508205045 65 279 2.0 8.0 0.00 0.00 0.00 35 1007.3
20260508205029 65 268 0.0 8.0 0.00 0.00 0.00 35 1007.3
20260508204939 65 350 2.0 8.0 0.00 0.00 0.00 34 1007.3
20260508204833 65 266 2.0 8.0 0.00 0.00 0.00 34 1007.3
20260508204727 66 276 3.0 6.0 0.00 0.00 0.00 33 1007.3
20260508204623 65 251 2.0 8.0 0.00 0.00 0.00 33 1007.6
20260508204516 65 342 0.0 8.0 0.00 0.00 0.00 35 1007.3
20260508204411 65 257 1.0 9.0 0.00 0.00 0.00 35 1007.6
20260508204306 65 210 2.0 9.0 0.00 0.00 0.00 34 1007.3
20260508204200 64 216 2.0 9.0 0.00 0.00 0.00 36 1007.3
20260508204054 63 99 0.0 9.0 0.00 0.00 0.00 35 1007.6
20260508204017 63 359 2.0 9.0 0.00 0.00 0.00 35 1007.3
20260508203949 63 226 3.0 9.0 0.00 0.00 0.00 35 1007.3
20260508203843 63 222 5.0 9.0 0.00 0.00 0.00 35 1007.3
20260508203737 63 170 6.0 9.0 0.00 0.00 0.00 35 1007.6
20260508203631 63 187 3.0 9.0 0.00 0.00 0.00 35 1007.6
20260508203510 63 190 8.0 9.0 0.00 0.00 0.00 35 1007.6
20260508203420 63 203 4.0 9.0 0.00 0.00 0.00 35 1007.6
20260508203314 63 323 1.0 9.0 0.00 0.00 0.00 35 1007.6
20260508203208 63 289 6.0 9.0 0.00 0.00 0.00 34 1007.6
20260508203102 63 276 3.0 9.0 0.00 0.00 0.00 35 1007.6
20260508203003 63 261 4.0 8.0 0.00 0.00 0.00 34 1007.6
20260508202957 63 261 4.0 8.0 0.00 0.00 0.00 34 1007.6
20260508202851 63 208 5.0 8.0 0.00 0.00 0.00 35 1007.6
20260508202746 63 196 5.0 8.0 0.00 0.00 0.00 35 1007.6
20260508202640 64 247 4.0 8.0 0.00 0.00 0.00 35 1007.6
20260508202534 64 72 4.0 8.0 0.00 0.00 0.00 34 1007.9
20260508202457 64 272 6.0 8.0 0.00 0.00 0.00 34 1007.9
20260508202429 64 113 1.0 8.0 0.00 0.00 0.00 36 1007.9
20260508202323 64 205 2.0 8.0 0.00 0.00 0.00 34 1007.6
20260508202231 64 184 0.0 8.0 0.00 0.00 0.00 33 1007.9
20260508202111 64 255 0.0 8.0 0.00 0.00 0.00 33 1007.6
20260508202019 63 229 0.0 11.0 0.00 0.00 0.00 35 1007.9
20260508201950 63 153 0.0 11.0 0.00 0.00 0.00 36 1007.9
20260508201859 62 295 3.0 11.0 0.00 0.00 0.00 34 1007.9
20260508201755 63 244 3.0 11.0 0.00 0.00 0.00 35 1007.9
20260508201648 63 249 4.0 11.0 0.00 0.00 0.00 35 1007.9
20260508201542 63 236 5.0 11.0 0.00 0.00 0.00 34 1007.9
20260508201530 62 186 4.0 9.0 0.00 0.00 0.00 36 1008.6
20260508201526 61 236 0.0 13.0 0.00 0.00 0.00 36 1008.6
20260508201522 63 272 2.0 9.0 0.00 0.00 0.00 36 1008.3
20260508201518 63 139 3.0 11.0 0.00 0.00 0.00 37 1008.3
20260508201514 62 233 4.0 8.0 0.00 0.00 0.00 35 1007.9
20260508201506 63 277 0.0 11.0 0.00 0.00 0.00 36 1007.9
20260508201502 63 172 1.0 11.0 0.00 0.00 0.00 34 1007.9
20260508201453 63 230 4.0 11.0 0.00 0.00 0.00 37 1007.9
20260508201231 63 203 2.0 11.0 0.00 0.00 0.00 36 1007.9
20260508201223 63 244 6.0 11.0 0.00 0.00 0.00 34 1007.9
20260508201214 62 265 3.0 10.0 0.00 0.00 0.00 36 1007.9
20260508200948 62 242 3.0 10.0 0.00 0.00 0.00 35 1007.9
20260508200944 62 283 4.0 10.0 0.00 0.00 0.00 36 1007.9
20260508200936 62 254 4.0 10.0 0.00 0.00 0.00 35 1007.9
20260508200716 62 213 6.0 10.0 0.00 0.00 0.00 35 1007.9
20260508200707 62 232 6.0 8.0 0.00 0.00 0.00 35 1007.9
20260508200659 62 233 4.0 8.0 0.00 0.00 0.00 35 1007.9
20260508200437 62 197 6.0 8.0 0.00 0.00 0.00 35 1008.3
20260508200429 63 193 1.0 8.0 0.00 0.00 0.00 34 1008.3
20260508200205 63 186 6.0 8.0 0.00 0.00 0.00 34 1008.3
20260508200157 63 254 2.0 8.0 0.00 0.00 0.00 36 1008.3
20260508195935 63 272 2.0 9.0 0.00 0.00 0.00 36 1008.3
20260508195927 63 339 1.0 11.0 0.00 0.00 0.00 37 1008.3
20260508195705 63 323 2.0 11.0 0.00 0.00 0.00 37 1008.3
20260508195656 63 299 5.0 11.0 0.00 0.00 0.00 36 1008.3
20260508195648 63 290 2.0 11.0 0.00 0.00 0.00 35 1008.3
20260508195427 63 241 1.0 11.0 0.00 0.00 0.00 35 1008.3
20260508195423 63 201 2.0 11.0 0.00 0.00 0.00 35 1008.3
20260508195414 63 255 4.0 11.0 0.00 0.00 0.00 36 1008.3
20260508195150 62 234 5.0 11.0 0.00 0.00 0.00 36 1008.3
20260508195142 62 242 7.0 11.0 0.00 0.00 0.00 38 1008.3
20260508195133 63 150 2.0 11.0 0.00 0.00 0.00 36 1008.3
20260508194911 63 174 10.0 11.0 0.00 0.00 0.00 35 1008.3
20260508194902 63 213 4.0 9.0 0.00 0.00 0.00 36 1008.3
20260508194642 64 264 4.0 8.0 0.00 0.00 0.00 35 1008.3
20260508194634 64 196 1.0 7.0 0.00 0.00 0.00 36 1008.6
20260508194411 64 230 0.0 7.0 0.00 0.00 0.00 37 1008.6
20260508194406 64 256 0.0 7.0 0.00 0.00 0.00 36 1008.6
20260508194358 63 198 1.0 7.0 0.00 0.00 0.00 37 1008.6
20260508194349 62 209 2.0 9.0 0.00 0.00 0.00 37 1008.3
20260508194127 62 53 1.0 9.0 0.00 0.00 0.00 36 1008.6
20260508194118 62 134 4.0 9.0 0.00 0.00 0.00 36 1008.6
20260508193856 62 221 6.0 9.0 0.00 0.00 0.00 35 1008.6
20260508193848 62 154 3.0 11.0 0.00 0.00 0.00 37 1008.6
20260508193627 62 303 1.0 11.0 0.00 0.00 0.00 37 1008.6
20260508193619 61 289 2.0 11.0 0.00 0.00 0.00 37 1009.0
20260508193611 61 67 0.0 13.0 0.00 0.00 0.00 38 1008.6
20260508193259 62 227 5.0 13.0 0.00 0.00 0.00 37 1009.0
20260508193153 62 189 4.0 13.0 0.00 0.00 0.00 36 1009.0
20260508193048 62 231 4.0 13.0 0.00 0.00 0.00 37 1009.0
20260508192943 62 237 3.0 13.0 0.00 0.00 0.00 36 1009.0
20260508192837 62 193 4.0 13.0 0.00 0.00 0.00 37 1009.0
20260508192732 62 194 8.0 13.0 0.00 0.00 0.00 36 1009.0
20260508192626 62 213 3.0 13.0 0.00 0.00 0.00 38 1008.6
20260508192520 62 163 7.0 13.0 0.00 0.00 0.00 36 1009.0
20260508192415 62 264 5.0 10.0 0.00 0.00 0.00 37 1008.6
20260508192338 62 199 3.0 10.0 0.00 0.00 0.00 38 1009.0
20260508192308 62 247 5.0 10.0 0.00 0.00 0.00 37 1009.0
20260508192203 62 226 2.0 6.0 0.00 0.00 0.00 38 1009.0
20260508192058 62 274 3.0 6.0 0.00 0.00 0.00 36 1009.0
20260508191952 62 209 3.0 7.0 0.00 0.00 0.00 36 1009.0
20260508191846 62 205 1.0 7.0 0.00 0.00 0.00 35 1009.0
20260508191830 62 318 0.0 7.0 0.00 0.00 0.00 35 1009.0
20260508191741 62 303 1.0 7.0 0.00 0.00 0.00 35 1009.0
20260508191635 62 256 3.0 9.0 0.00 0.00 0.00 38 1009.0
20260508191529 62 266 3.0 9.0 0.00 0.00 0.00 37 1009.0
20260508191423 62 234 1.0 10.0 0.00 0.00 0.00 38 1009.0
20260508191325 61 333 2.0 10.0 0.00 0.00 0.00 37 1009.0
20260508191319 61 266 2.0 10.0 0.00 0.00 0.00 37 1009.0
20260508191213 60 266 2.0 10.0 0.00 0.00 0.00 37 1009.0
20260508191107 60 287 3.0 10.0 0.00 0.00 0.00 37 1009.0
20260508190856 60 197 2.0 10.0 0.00 0.00 0.00 37 1009.0
20260508190818 60 161 2.0 10.0 0.00 0.00 0.00 37 1009.0
20260508190750 60 218 4.0 10.0 0.00 0.00 0.00 36 1009.0
20260508190644 61 170 9.0 10.0 0.00 0.00 0.00 36 1009.0
20260508190551 62 188 7.0 10.0 0.00 0.00 0.00 36 1009.0
20260508190434 62 161 1.0 8.0 0.00 0.00 0.00 37 1009.0
20260508190312 61 241 1.0 9.0 0.00 0.00 0.00 37 1009.0
20260508190116 61 210 3.0 9.0 0.00 0.00 0.00 36 1009.0
20260508190010 62 252 4.0 9.0 0.00 0.00 0.00 36 1009.0
20260508185904 62 175 2.0 9.0 0.00 0.00 0.00 36 1009.0
20260508185805 62 265 5.0 9.0 0.00 0.00 0.00 36 1009.0
20260508185759 62 265 5.0 9.0 0.00 0.00 0.00 36 1009.0
20260508185653 61 144 4.0 9.0 0.00 0.00 0.00 40 1009.0
20260508185547 61 114 2.0 9.0 0.00 0.00 0.00 37 1009.0
20260508185440 62 150 5.0 9.0 0.00 0.00 0.00 36 1009.3
20260508185339 62 219 2.0 6.0 0.00 0.00 0.00 37 1009.3
20260508185258 62 227 2.0 6.0 0.00 0.00 0.00 37 1009.3
20260508185229 62 249 2.0 7.0 0.00 0.00 0.00 36 1009.3
20260508185124 61 240 2.0 7.0 0.00 0.00 0.00 39 1009.3
20260508185017 61 220 4.0 7.0 0.00 0.00 0.00 36 1009.3
20260508184913 61 231 1.0 8.0 0.00 0.00 0.00 36 1009.0
20260508184806 61 123 0.0 10.0 0.00 0.00 0.00 37 1009.3
20260508184751 61 121 0.0 10.0 0.00 0.00 0.00 37 1009.3
20260508184701 61 137 3.0 10.0 0.00 0.00 0.00 36 1009.0
20260508184555 61 197 2.0 10.0 0.00 0.00 0.00 37 1009.3
20260508184449 61 249 0.0 10.0 0.00 0.00 0.00 38 1009.3
20260508184344 61 208 2.0 10.0 0.00 0.00 0.00 38 1009.3
20260508184245 61 240 4.0 10.0 0.00 0.00 0.00 36 1009.3
20260508184238 61 221 4.0 10.0 0.00 0.00 0.00 37 1009.3
20260508184133 60 210 2.0 10.0 0.00 0.00 0.00 38 1009.3
20260508184027 60 224 4.0 13.0 0.00 0.00 0.00 40 1009.3
20260508183921 61 202 6.0 13.0 0.00 0.00 0.00 38 1009.3
20260508183815 61 141 6.0 13.0 0.00 0.00 0.00 38 1009.3
20260508183737 60 219 2.0 13.0 0.00 0.00 0.00 39 1009.3
20260508183709 60 162 8.0 13.0 0.00 0.00 0.00 40 1009.3
20260508183603 59 117 0.0 13.0 0.00 0.00 0.00 40 1009.3
20260508183458 58 232 3.0 13.0 0.00 0.00 0.00 39 1009.3
20260508183352 58 227 0.0 13.0 0.00 0.00 0.00 40 1009.3
20260508183230 59 193 5.0 13.0 0.00 0.00 0.00 39 1009.3
20260508183140 59 207 8.0 13.0 0.00 0.00 0.00 40 1009.6
20260508183035 59 203 8.0 13.0 0.00 0.00 0.00 39 1009.6
20260508182929 59 200 7.0 13.0 0.00 0.00 0.00 40 1009.3
20260508182823 60 246 7.0 13.0 0.00 0.00 0.00 39 1009.3
20260508182718 60 183 9.0 13.0 0.00 0.00 0.00 38 1009.3
20260508182611 60 215 10.0 13.0 0.00 0.00 0.00 39 1009.3
20260508182505 60 126 4.0 13.0 0.00 0.00 0.00 41 1009.3
20260508182359 60 206 6.0 13.0 0.00 0.00 0.00 39 1009.3
20260508182254 60 195 7.0 13.0 0.00 0.00 0.00 39 1009.3
20260508182217 59 216 7.0 11.0 0.00 0.00 0.00 39 1009.3
20260508182148 59 171 4.0 9.0 0.00 0.00 0.00 39 1009.3
20260508182041 60 161 5.0 9.0 0.00 0.00 0.00 39 1009.3
20260508181936 61 181 5.0 9.0 0.00 0.00 0.00 38 1009.3
20260508181830 61 240 7.0 9.0 0.00 0.00 0.00 37 1009.3
20260508181725 60 219 3.0 9.0 0.00 0.00 0.00 38 1009.3
20260508181709 59 226 2.0 9.0 0.00 0.00 0.00 39 1009.3
20260508181619 59 198 2.0 9.0 0.00 0.00 0.00 39 1009.3
20260508181513 60 169 0.0 9.0 0.00 0.00 0.00 38 1009.3
20260508181407 60 199 4.0 9.0 0.00 0.00 0.00 38 1009.3
20260508181302 59 225 8.0 9.0 0.00 0.00 0.00 38 1009.3
20260508181203 59 133 4.0 9.0 0.00 0.00 0.00 39 1009.6
20260508181156 59 193 4.0 9.0 0.00 0.00 0.00 38 1009.6
20260508181050 59 171 3.0 9.0 0.00 0.00 0.00 38 1009.6
20260508180945 59 136 3.0 9.0 0.00 0.00 0.00 38 1009.6
20260508180839 60 134 3.0 9.0 0.00 0.00 0.00 39 1009.3
20260508180734 61 146 5.0 9.0 0.00 0.00 0.00 37 1009.6
20260508180657 61 204 6.0 9.0 0.00 0.00 0.00 37 1009.6
20260508180628 61 199 5.0 9.0 0.00 0.00 0.00 37 1009.6
20260508180522 61 198 8.0 9.0 0.00 0.00 0.00 38 1009.6
20260508180416 61 209 4.0 8.0 0.00 0.00 0.00 36 1009.6
20260508180311 62 142 2.0 6.0 0.00 0.00 0.00 37 1009.6
20260508180205 62 174 2.0 6.0 0.00 0.00 0.00 35 1009.6
20260508180150 62 174 2.0 6.0 0.00 0.00 0.00 35 1009.6
20260508180104 62 147 1.0 6.0 0.00 0.00 0.00 36 1009.6
20260508175954 62 150 1.0 7.0 0.00 0.00 0.00 35 1009.6
20260508175849 62 324 1.0 10.0 0.00 0.00 0.00 35 1009.6
20260508175743 62 71 1.0 10.0 0.00 0.00 0.00 36 1009.6
20260508175637 60 177 1.0 10.0 0.00 0.00 0.00 37 1009.6
20260508175532 60 157 1.0 10.0 0.00 0.00 0.00 36 1009.6
20260508175426 60 196 3.0 10.0 0.00 0.00 0.00 36 1009.6
20260508175320 60 242 1.0 10.0 0.00 0.00 0.00 35 1009.6
20260508175214 60 231 4.0 10.0 0.00 0.00 0.00 37 1009.6
20260508175137 60 161 1.0 10.0 0.00 0.00 0.00 35 1010.0
20260508175109 60 135 2.0 10.0 0.00 0.00 0.00 35 1010.0
20260508175004 60 211 6.0 10.0 0.00 0.00 0.00 36 1010.0
20260508174857 60 186 3.0 10.0 0.00 0.00 0.00 36 1010.0
20260508174752 61 172 2.0 10.0 0.00 0.00 0.00 35 1010.0
20260508174647 61 319 2.0 10.0 0.00 0.00 0.00 36 1010.4
20260508174631 61 336 3.0 10.0 0.00 0.00 0.00 35 1010.4
20260508174540 60 239 2.0 10.0 0.00 0.00 0.00 37 1010.4
20260508174434 59 211 2.0 10.0 0.00 0.00 0.00 38 1010.0
20260508174330 59 173 7.0 10.0 0.00 0.00 0.00 35 1010.4
20260508174224 59 178 2.0 10.0 0.00 0.00 0.00 37 1010.4
20260508174124 58 9 2.0 10.0 0.00 0.00 0.00 36 1010.4
20260508174116 58 266 3.0 10.0 0.00 0.00 0.00 37 1010.4
20260508174012 59 249 7.0 10.0 0.00 0.00 0.00 36 1010.4
20260508173906 60 227 6.0 8.0 0.00 0.00 0.00 36 1010.0
20260508173759 60 221 0.0 8.0 0.00 0.00 0.00 35 1010.0
20260508173654 60 295 5.0 8.0 0.00 0.00 0.00 37 1010.4
20260508173616 60 206 3.0 8.0 0.00 0.00 0.00 36 1010.4
20260508173548 60 246 4.0 8.0 0.00 0.00 0.00 37 1010.4
20260508173443 61 260 5.0 10.0 0.00 0.00 0.00 36 1010.0
20260508173336 61 233 4.0 10.0 0.00 0.00 0.00 38 1010.0
20260508173231 62 191 3.0 10.0 0.00 0.00 0.00 36 1010.0
20260508173125 62 238 4.0 10.0 0.00 0.00 0.00 35 1010.4
20260508173110 62 236 3.0 10.0 0.00 0.00 0.00 35 1010.4
20260508173019 61 164 2.0 10.0 0.00 0.00 0.00 38 1010.4
20260508172913 61 345 1.0 10.0 0.00 0.00 0.00 37 1010.4
20260508172808 60 304 3.0 10.0 0.00 0.00 0.00 38 1010.4
20260508172702 60 327 4.0 10.0 0.00 0.00 0.00 39 1010.4
20260508172603 60 321 3.0 10.0 0.00 0.00 0.00 37 1010.4
20260508172557 60 321 3.0 10.0 0.00 0.00 0.00 37 1010.4
20260508172450 60 176 2.0 7.0 0.00 0.00 0.00 37 1010.4
20260508172346 60 199 2.0 7.0 0.00 0.00 0.00 38 1010.4
20260508172240 60 316 0.0 7.0 0.00 0.00 0.00 38 1010.4
20260508172133 59 232 2.0 7.0 0.00 0.00 0.00 38 1010.4
20260508172056 59 180 2.0 7.0 0.00 0.00 0.00 37 1010.4
20260508172028 59 216 3.0 7.0 0.00 0.00 0.00 36 1010.8
20260508171922 59 213 1.0 8.0 0.00 0.00 0.00 37 1010.4
20260508171816 60 206 2.0 8.0 0.00 0.00 0.00 36 1010.4
20260508171711 60 230 4.0 8.0 0.00 0.00 0.00 36 1010.8
20260508171605 60 108 1.0 8.0 0.00 0.00 0.00 36 1010.8
20260508171549 60 246 0.0 8.0 0.00 0.00 0.00 36 1010.8
20260508171459 60 245 1.0 8.0 0.00 0.00 0.00 39 1010.8
20260508171353 60 227 4.0 9.0 0.00 0.00 0.00 39 1010.8
20260508171248 60 223 3.0 9.0 0.00 0.00 0.00 39 1010.4
20260508171143 59 158 1.0 9.0 0.00 0.00 0.00 40 1010.4
20260508171045 59 219 1.0 9.0 0.00 0.00 0.00 39 1010.4
20260508171039 59 67 2.0 9.0 0.00 0.00 0.00 39 1010.4
20260508170933 59 274 1.0 9.0 0.00 0.00 0.00 40 1010.8
20260508170830 59 296 5.0 9.0 0.00 0.00 0.00 38 1010.8
20260508170724 59 232 4.0 9.0 0.00 0.00 0.00 41 1010.8
20260508170618 59 210 2.0 9.0 0.00 0.00 0.00 40 1010.8
20260508170541 59 147 3.0 9.0 0.00 0.00 0.00 40 1010.8
20260508170513 58 211 2.0 9.0 0.00 0.00 0.00 40 1010.8
20260508170407 58 207 4.0 9.0 0.00 0.00 0.00 40 1010.8
20260508170301 58 295 4.0 9.0 0.00 0.00 0.00 41 1010.8
20260508170209 58 25 2.0 9.0 0.00 0.00 0.00 39 1010.8
20260508170035 58 253 2.0 9.0 0.00 0.00 0.00 39 1010.8
20260508165945 58 98 1.0 9.0 0.00 0.00 0.00 39 1010.8
20260508165839 58 247 1.0 9.0 0.00 0.00 0.00 40 1010.8
20260508165734 58 357 2.0 9.0 0.00 0.00 0.00 39 1010.8
20260508165628 58 210 2.0 9.0 0.00 0.00 0.00 39 1010.8
20260508165529 58 211 5.0 9.0 0.00 0.00 0.00 38 1010.8
20260508165523 58 218 5.0 9.0 0.00 0.00 0.00 40 1010.8
20260508165417 58 228 3.0 9.0 0.00 0.00 0.00 41 1010.8
20260508165312 58 251 3.0 9.0 0.00 0.00 0.00 41 1010.8
20260508165205 58 161 5.0 9.0 0.00 0.00 0.00 38 1010.8
20260508165101 58 213 2.0 9.0 0.00 0.00 0.00 39 1010.8
20260508165023 58 199 3.0 9.0 0.00 0.00 0.00 38 1010.8
20260508164954 59 202 3.0 9.0 0.00 0.00 0.00 38 1010.8
20260508164850 59 208 4.0 9.0 0.00 0.00 0.00 37 1010.8
20260508164756 59 236 4.0 10.0 0.00 0.00 0.00 38 1010.8
20260508164752 59 305 6.0 9.0 0.00 0.00 0.00 40 1010.8
20260508164743 59 257 3.0 10.0 0.00 0.00 0.00 39 1010.8
20260508164735 59 7 3.0 10.0 0.00 0.00 0.00 38 1010.8
20260508164427 58 297 1.0 10.0 0.00 0.00 0.00 39 1011.1
20260508164320 58 261 1.0 10.0 0.00 0.00 0.00 38 1010.8
20260508164239 58 127 0.0 10.0 0.00 0.00 0.00 37 1011.1
20260508164235 59 323 3.0 10.0 0.00 0.00 0.00 38 1011.1
20260508164226 59 323 3.0 10.0 0.00 0.00 0.00 37 1011.1
20260508164002 58 127 0.0 10.0 0.00 0.00 0.00 37 1011.1
20260508163856 58 123 6.0 10.0 0.00 0.00 0.00 37 1011.1
20260508163750 59 189 3.0 10.0 0.00 0.00 0.00 38 1011.1
20260508163646 59 148 0.0 10.0 0.00 0.00 0.00 39 1011.1
20260508163539 58 118 2.0 10.0 0.00 0.00 0.00 38 1011.4
20260508163501 58 193 2.0 10.0 0.00 0.00 0.00 40 1011.4
20260508163434 58 248 5.0 10.0 0.00 0.00 0.00 38 1011.1
20260508163329 58 171 3.0 9.0 0.00 0.00 0.00 38 1011.1
20260508163009 58 236 1.0 8.0 0.00 0.00 0.00 36 1011.4
20260508162954 58 236 1.0 10.0 0.00 0.00 0.00 36 1011.4
20260508162904 58 232 3.0 10.0 0.00 0.00 0.00 38 1011.4
20260508162758 59 216 0.0 10.0 0.00 0.00 0.00 36 1011.4
20260508162546 58 278 3.0 10.0 0.00 0.00 0.00 39 1011.1
20260508162447 57 170 2.0 10.0 0.00 0.00 0.00 38 1011.1
20260508162441 57 215 3.0 10.0 0.00 0.00 0.00 39 1011.4
20260508162335 57 277 0.0 10.0 0.00 0.00 0.00 38 1011.4
20260508162230 57 222 2.0 10.0 0.00 0.00 0.00 37 1011.1
20260508162018 58 195 8.0 10.0 0.00 0.00 0.00 36 1011.1
20260508161941 58 222 4.0 9.0 0.00 0.00 0.00 36 1011.1
20260508161913 58 207 3.0 9.0 0.00 0.00 0.00 37 1011.1
20260508161807 58 223 4.0 9.0 0.00 0.00 0.00 36 1011.1
20260508161701 58 231 2.0 9.0 0.00 0.00 0.00 39 1011.1
20260508161555 59 258 5.0 9.0 0.00 0.00 0.00 36 1011.1
20260508161455 59 195 1.0 9.0 0.00 0.00 0.00 36 1011.1
20260508161434 59 250 3.0 9.0 0.00 0.00 0.00 35 1011.4
20260508161344 60 206 3.0 6.0 0.00 0.00 0.00 38 1011.1
20260508161238 60 216 4.0 6.0 0.00 0.00 0.00 36 1010.8
20260508161028 59 217 2.0 10.0 0.00 0.00 0.00 39 1011.1
20260508160929 59 104 1.0 10.0 0.00 0.00 0.00 38 1011.1
20260508160922 58 154 1.0 10.0 0.00 0.00 0.00 39 1011.1
20260508160816 57 195 1.0 10.0 0.00 0.00 0.00 39 1011.1
20260508160710 57 98 0.0 10.0 0.00 0.00 0.00 38 1011.1
20260508160620 57 57 1.0 10.0 0.00 0.00 0.00 37 1011.1
20260508160459 57 188 1.0 10.0 0.00 0.00 0.00 36 1011.1
20260508160422 57 166 2.0 10.0 0.00 0.00 0.00 36 1011.4
20260508160353 57 180 0.0 10.0 0.00 0.00 0.00 36 1011.4
20260508160155 57 263 6.0 10.0 0.00 0.00 0.00 40 1011.4
20260508160035 57 211 1.0 9.0 0.00 0.00 0.00 38 1011.4
20260508155914 57 202 5.0 6.0 0.00 0.00 0.00 40 1011.4
20260508155824 57 133 1.0 6.0 0.00 0.00 0.00 38 1011.4
20260508155718 58 199 1.0 6.0 0.00 0.00 0.00 38 1011.4
20260508155613 58 128 2.0 6.0 0.00 0.00 0.00 40 1011.4
20260508155518 58 135 1.0 6.0 0.00 0.00 0.00 38 1011.4
20260508155408 58 99 2.0 9.0 0.00 0.00 0.00 37 1011.4
20260508155400 59 82 2.0 9.0 0.00 0.00 0.00 37 1011.4
20260508155255 58 280 1.0 10.0 0.00 0.00 0.00 36 1011.1
20260508155150 58 208 1.0 13.0 0.00 0.00 0.00 39 1011.4
20260508155044 56 188 1.0 13.0 0.00 0.00 0.00 39 1011.1
20260508154938 56 321 2.0 13.0 0.00 0.00 0.00 40 1011.1
20260508154900 56 306 1.0 13.0 0.00 0.00 0.00 38 1011.1
20260508154833 56 286 3.0 13.0 0.00 0.00 0.00 38 1011.1
20260508154727 56 206 1.0 13.0 0.00 0.00 0.00 37 1011.1
20260508154622 56 234 2.0 13.0 0.00 0.00 0.00 40 1011.1
20260508154516 56 253 6.0 13.0 0.00 0.00 0.00 40 1011.4
20260508154411 56 233 6.0 13.0 0.00 0.00 0.00 40 1011.1
20260508154355 56 172 6.0 13.0 0.00 0.00 0.00 40 1011.1
20260508154304 57 215 7.0 13.0 0.00 0.00 0.00 39 1011.4
20260508154159 57 228 10.0 13.0 0.00 0.00 0.00 37 1011.1
20260508154052 55 230 2.0 11.0 0.00 0.00 0.00 43 1011.4
20260508153948 55 143 1.0 11.0 0.00 0.00 0.00 42 1011.1
20260508153848 55 205 3.0 11.0 0.00 0.00 0.00 42 1011.4
20260508153841 55 208 4.0 11.0 0.00 0.00 0.00 41 1011.4
20260508153736 56 199 6.0 11.0 0.00 0.00 0.00 41 1011.1
20260508153630 57 233 5.0 10.0 0.00 0.00 0.00 41 1011.1
20260508153523 58 211 3.0 8.0 0.00 0.00 0.00 39 1011.1
20260508153419 58 139 2.0 8.0 0.00 0.00 0.00 37 1011.1
20260508153341 57 107 1.0 8.0 0.00 0.00 0.00 40 1011.1
20260508153313 57 160 0.0 8.0 0.00 0.00 0.00 38 1011.1
20260508153207 56 41 3.0 8.0 0.00 0.00 0.00 38 1011.4
20260508153101 56 54 3.0 8.0 0.00 0.00 0.00 39 1011.4
20260508152957 56 131 0.0 8.0 0.00 0.00 0.00 44 1011.1
20260508152943 55 122 3.0 7.0 0.00 0.00 0.00 48 1011.4
20260508152938 55 315 1.0 3.0 0.00 0.00 0.00 47 1011.4
20260508152934 55 141 0.0 8.0 0.00 0.00 0.00 48 1011.8
20260508152930 55 321 0.0 8.0 0.00 0.00 0.00 44 1011.4
20260508152916 56 154 1.0 8.0 0.00 0.00 0.00 44 1011.4
20260508152912 56 301 5.0 8.0 0.00 0.00 0.00 43 1011.4
20260508152652 56 227 2.0 8.0 0.00 0.00 0.00 44 1011.4
20260508152643 56 207 2.0 8.0 0.00 0.00 0.00 44 1011.4
20260508152635 56 326 0.0 8.0 0.00 0.00 0.00 44 1011.4
20260508152413 55 299 1.0 8.0 0.00 0.00 0.00 45 1011.4
20260508152405 54 81 2.0 8.0 0.00 0.00 0.00 46 1011.8
20260508152144 56 170 3.0 8.0 0.00 0.00 0.00 45 1011.8
20260508152139 54 3 1.0 8.0 0.00 0.00 0.00 45 1011.8
20260508152131 54 152 3.0 8.0 0.00 0.00 0.00 46 1011.8
20260508152122 55 120 4.0 8.0 0.00 0.00 0.00 45 1011.8
20260508151901 56 137 5.0 8.0 0.00 0.00 0.00 44 1011.8
20260508151852 56 127 3.0 7.0 0.00 0.00 0.00 46 1011.4
20260508151632 56 145 0.0 7.0 0.00 0.00 0.00 45 1011.4
20260508151621 55 124 2.0 7.0 0.00 0.00 0.00 47 1011.4
20260508151600 55 138 4.0 7.0 0.00 0.00 0.00 45 1011.4
20260508151338 55 55 3.0 8.0 0.00 0.00 0.00 47 1011.4
20260508151330 55 136 2.0 8.0 0.00 0.00 0.00 49 1011.4
20260508151108 54 165 2.0 8.0 0.00 0.00 0.00 50 1011.8
20260508151104 55 220 2.0 8.0 0.00 0.00 0.00 47 1011.4
20260508151055 54 271 1.0 8.0 0.00 0.00 0.00 49 1011.4
20260508150821 54 115 1.0 8.0 0.00 0.00 0.00 51 1011.8
20260508150550 54 203 5.0 8.0 0.00 0.00 0.00 49 1011.8
20260508150542 55 160 6.0 8.0 0.00 0.00 0.00 50 1011.8
20260508150533 56 225 4.0 8.0 0.00 0.00 0.00 49 1011.8
20260508150307 56 209 6.0 8.0 0.00 0.00 0.00 47 1011.8
20260508150303 56 185 6.0 7.0 0.00 0.00 0.00 49 1011.8
20260508150255 56 202 2.0 3.0 0.00 0.00 0.00 47 1011.8
20260508150028 55 290 1.0 3.0 0.00 0.00 0.00 46 1011.8
20260508150021 55 315 1.0 3.0 0.00 0.00 0.00 47 1011.4
20260508145802 56 325 2.0 3.0 0.00 0.00 0.00 47 1011.4
20260508145748 56 334 2.0 3.0 0.00 0.00 0.00 47 1011.4
20260508145523 55 107 0.0 3.0 0.00 0.00 0.00 48 1011.4
20260508145519 56 188 1.0 3.0 0.00 0.00 0.00 49 1011.8
20260508145511 55 214 1.0 3.0 0.00 0.00 0.00 48 1011.8
20260508145250 55 116 0.0 3.0 0.00 0.00 0.00 47 1011.8
20260508145231 55 139 1.0 7.0 0.00 0.00 0.00 47 1011.8
20260508145007 56 134 1.0 8.0 0.00 0.00 0.00 47 1011.8
20260508144958 55 133 0.0 8.0 0.00 0.00 0.00 47 1011.8
20260508144714 55 99 1.0 8.0 0.00 0.00 0.00 47 1011.8
20260508144607 55 80 2.0 8.0 0.00 0.00 0.00 47 1011.8
20260508144501 55 179 0.0 8.0 0.00 0.00 0.00 45 1011.8
20260508144357 55 238 1.0 8.0 0.00 0.00 0.00 44 1011.8
20260508144250 55 215 2.0 8.0 0.00 0.00 0.00 44 1011.8
20260508144235 55 199 2.0 8.0 0.00 0.00 0.00 46 1011.8
20260508144039 55 109 4.0 8.0 0.00 0.00 0.00 49 1011.8
20260508143933 55 215 4.0 7.0 0.00 0.00 0.00 49 1011.8
20260508143729 56 198 3.0 7.0 0.00 0.00 0.00 46 1011.8
20260508143723 56 176 3.0 7.0 0.00 0.00 0.00 45 1011.8
20260508143616 56 129 0.0 7.0 0.00 0.00 0.00 48 1011.8
20260508143510 56 146 1.0 7.0 0.00 0.00 0.00 46 1011.8
20260508143404 56 166 2.0 7.0 0.00 0.00 0.00 47 1011.8
20260508143258 55 65 0.0 7.0 0.00 0.00 0.00 50 1011.8
20260508143222 55 124 1.0 7.0 0.00 0.00 0.00 52 1011.8
20260508143152 55 232 1.0 8.0 0.00 0.00 0.00 52 1011.8
20260508143048 54 303 0.0 8.0 0.00 0.00 0.00 50 1012.1
20260508142941 54 220 1.0 8.0 0.00 0.00 0.00 49 1011.8
20260508142837 54 201 2.0 8.0 0.00 0.00 0.00 50 1011.8
20260508142715 54 221 3.0 8.0 0.00 0.00 0.00 51 1011.8
20260508142624 54 243 3.0 8.0 0.00 0.00 0.00 51 1012.1
20260508142519 54 298 4.0 8.0 0.00 0.00 0.00 53 1011.8
20260508142434 54 211 4.0 8.0 0.00 0.00 0.00 52 1011.8
20260508142426 54 221 4.0 8.0 0.00 0.00 0.00 54 1011.8
20260508142209 53 185 5.0 8.0 0.00 0.00 0.00 52 1011.8
20260508142203 53 212 5.0 8.0 0.00 0.00 0.00 52 1011.8
20260508142057 53 124 1.0 8.0 0.00 0.00 0.00 51 1011.8
20260508141951 53 193 0.0 8.0 0.00 0.00 0.00 50 1011.8
20260508141845 53 208 3.0 8.0 0.00 0.00 0.00 52 1011.8
20260508141740 53 195 4.0 8.0 0.00 0.00 0.00 51 1011.8
20260508141702 54 200 5.0 8.0 0.00 0.00 0.00 52 1011.8
20260508141632 54 233 6.0 8.0 0.00 0.00 0.00 52 1011.8
20260508141526 54 189 4.0 6.0 0.00 0.00 0.00 53 1011.8
20260508141420 54 218 3.0 6.0 0.00 0.00 0.00 53 1011.8
20260508141314 53 141 3.0 6.0 0.00 0.00 0.00 54 1012.1
20260508141209 53 66 1.0 6.0 0.00 0.00 0.00 53 1012.1
20260508141154 53 129 0.0 6.0 0.00 0.00 0.00 53 1012.1
20260508141104 53 231 2.0 6.0 0.00 0.00 0.00 53 1012.1
20260508140957 53 131 0.0 4.0 0.00 0.00 0.00 56 1012.1
20260508140852 53 106 2.0 4.0 0.00 0.00 0.00 56 1012.1
20260508140747 53 193 0.0 4.0 0.00 0.00 0.00 55 1012.1
20260508140648 53 257 2.0 4.0 0.00 0.00 0.00 55 1012.1
20260508140642 53 238 2.0 4.0 0.00 0.00 0.00 55 1012.1
20260508140534 54 187 3.0 4.0 0.00 0.00 0.00 55 1011.8
20260508140430 54 99 2.0 7.0 0.00 0.00 0.00 57 1012.1
20260508140324 54 118 0.0 7.0 0.00 0.00 0.00 59 1012.1
20260508140218 53 120 0.0 7.0 0.00 0.00 0.00 59 1012.4
20260508140141 53 154 1.0 7.0 0.00 0.00 0.00 58 1012.4
20260508140117 52 153 0.0 7.0 0.00 0.00 0.00 59 1012.4
20260508140006 52 301 0.0 7.0 0.00 0.00 0.00 60 1012.1
20260508135901 51 59 1.0 7.0 0.00 0.00 0.00 60 1011.8
20260508135756 51 119 0.0 7.0 0.00 0.00 0.00 61 1011.8
20260508135634 51 181 1.0 9.0 0.00 0.00 0.00 61 1012.1
20260508135544 52 216 4.0 9.0 0.00 0.00 0.00 61 1012.1
20260508135438 52 207 4.0 9.0 0.00 0.00 0.00 60 1012.1
20260508135332 52 203 2.0 9.0 0.00 0.00 0.00 58 1012.1
20260508135227 51 136 0.0 9.0 0.00 0.00 0.00 59 1011.8
20260508135128 51 346 1.0 9.0 0.00 0.00 0.00 60 1011.8
20260508135121 51 74 1.0 9.0 0.00 0.00 0.00 60 1011.8
20260508135016 51 359 1.0 9.0 0.00 0.00 0.00 59 1012.1
20260508134910 51 293 1.0 9.0 0.00 0.00 0.00 59 1012.1
20260508134805 51 280 2.0 9.0 0.00 0.00 0.00 59 1012.1
20260508134658 52 193 7.0 9.0 0.00 0.00 0.00 59 1011.8
20260508134622 52 166 4.0 6.0 0.00 0.00 0.00 57 1011.8
20260508134553 52 213 2.0 6.0 0.00 0.00 0.00 59 1011.8
20260508134448 52 218 2.0 7.0 0.00 0.00 0.00 60 1012.1
20260508134342 52 205 2.0 7.0 0.00 0.00 0.00 60 1012.1
20260508134236 51 163 1.0 7.0 0.00 0.00 0.00 62 1012.1
20260508134128 51 219 2.0 7.0 0.00 0.00 0.00 60 1012.1
20260508134114 51 195 5.0 7.0 0.00 0.00 0.00 60 1012.1
20260508134022 51 198 2.0 7.0 0.00 0.00 0.00 61 1012.1
20260508133918 51 263 0.0 7.0 0.00 0.00 0.00 62 1012.1
20260508133812 51 298 1.0 7.0 0.00 0.00 0.00 61 1012.4
20260508133706 51 248 1.0 7.0 0.00 0.00 0.00 61 1012.4
20260508133607 51 125 2.0 7.0 0.00 0.00 0.00 60 1012.1
20260508133601 51 150 2.0 7.0 0.00 0.00 0.00 61 1012.1
20260508133455 51 231 2.0 4.0 0.00 0.00 0.00 61 1012.4
20260508133349 51 203 1.0 6.0 0.00 0.00 0.00 60 1012.1
20260508133243 51 151 1.0 6.0 0.00 0.00 0.00 61 1012.1
20260508133137 50 177 3.0 6.0 0.00 0.00 0.00 61 1012.1
20260508133101 50 186 3.0 6.0 0.00 0.00 0.00 62 1012.1
20260508133032 50 208 2.0 6.0 0.00 0.00 0.00 63 1012.1
20260508132926 50 210 0.0 6.0 0.00 0.00 0.00 63 1012.4
20260508132822 50 331 1.0 6.0 0.00 0.00 0.00 63 1012.1
20260508132716 50 338 1.0 6.0 0.00 0.00 0.00 62 1012.1
20260508132610 50 175 0.0 6.0 0.00 0.00 0.00 62 1012.4
20260508132555 50 175 0.0 6.0 0.00 0.00 0.00 62 1012.4
20260508132504 50 186 2.0 6.0 0.00 0.00 0.00 63 1012.1
20260508132359 50 191 2.0 4.0 0.00 0.00 0.00 62 1012.1
20260508132253 50 117 1.0 4.0 0.00 0.00 0.00 63 1012.1
20260508132146 50 136 2.0 4.0 0.00 0.00 0.00 63 1012.1
20260508132048 50 161 1.0 4.0 0.00 0.00 0.00 63 1012.1
20260508132041 49 161 2.0 4.0 0.00 0.00 0.00 64 1012.1
20260508131935 49 153 2.0 4.0 0.00 0.00 0.00 65 1012.1
20260508131831 50 173 2.0 4.0 0.00 0.00 0.00 64 1012.1
20260508131725 50 193 4.0 4.0 0.00 0.00 0.00 63 1012.1
20260508131619 50 139 1.0 4.0 0.00 0.00 0.00 66 1012.1
20260508131542 49 139 0.0 4.0 0.00 0.00 0.00 65 1012.1
20260508131513 49 141 0.0 4.0 0.00 0.00 0.00 65 1012.4
20260508131420 49 203 1.0 4.0 0.00 0.00 0.00 65 1012.1
20260508131302 49 211 2.0 4.0 0.00 0.00 0.00 66 1012.1
20260508131156 49 284 1.0 4.0 0.00 0.00 0.00 66 1012.4
20260508131050 49 189 1.0 4.0 0.00 0.00 0.00 65 1012.4
20260508131035 49 205 2.0 4.0 0.00 0.00 0.00 65 1012.1
20260508130945 49 137 1.0 4.0 0.00 0.00 0.00 64 1012.1
20260508130839 49 206 2.0 4.0 0.00 0.00 0.00 65 1012.4
20260508130733 49 187 0.0 4.0 0.00 0.00 0.00 65 1012.1
20260508130628 50 206 2.0 4.0 0.00 0.00 0.00 64 1012.4
20260508130529 50 145 2.0 3.0 0.00 0.00 0.00 66 1012.1
20260508130523 50 128 1.0 3.0 0.00 0.00 0.00 66 1012.1
20260508130416 50 210 1.0 3.0 0.00 0.00 0.00 65 1012.1
20260508130312 50 184 1.0 3.0 0.00 0.00 0.00 65 1012.4
20260508130206 49 144 0.0 3.0 0.00 0.00 0.00 66 1012.1
20260508130103 49 129 0.0 3.0 0.00 0.00 0.00 67 1012.1
20260508130022 49 101 1.0 3.0 0.00 0.00 0.00 67 1012.1
20260508125954 48 108 0.0 3.0 0.00 0.00 0.00 67 1012.1
20260508125848 48 125 1.0 3.0 0.00 0.00 0.00 68 1012.1
20260508125744 48 131 1.0 3.0 0.00 0.00 0.00 69 1012.4
20260508125638 48 151 2.0 3.0 0.00 0.00 0.00 69 1012.1
20260508125515 48 116 2.0 3.0 0.00 0.00 0.00 68 1012.1
20260508125426 48 126 1.0 3.0 0.00 0.00 0.00 69 1012.1
20260508125320 48 125 2.0 3.0 0.00 0.00 0.00 69 1011.8
20260508125214 48 142 2.0 3.0 0.00 0.00 0.00 69 1012.1
20260508125109 48 124 2.0 2.0 0.00 0.00 0.00 69 1012.1
20260508125010 47 136 1.0 2.0 0.00 0.00 0.00 69 1012.1
20260508125002 47 141 1.0 2.0 0.00 0.00 0.00 70 1012.1
20260508124858 47 141 1.0 2.0 0.00 0.00 0.00 70 1011.8
20260508124752 47 125 2.0 2.0 0.00 0.00 0.00 71 1012.1
20260508124646 47 142 2.0 2.0 0.00 0.00 0.00 70 1011.8
20260508124547 45 204 2.0 4.0 0.00 0.00 0.00 73 1012.1
20260508124542 47 145 1.0 2.0 0.00 0.00 0.00 71 1012.1
20260508124534 45 207 2.0 3.0 0.00 0.00 0.00 74 1012.1
20260508124530 45 189 1.0 4.0 0.00 0.00 0.00 72 1011.8
20260508124524 47 152 0.0 2.0 0.00 0.00 0.00 72 1012.1
20260508124519 47 202 0.0 2.0 0.00 0.00 0.00 71 1012.1
20260508124511 46 205 0.0 2.0 0.00 0.00 0.00 71 1012.1
20260508124246 46 177 2.0 2.0 0.00 0.00 0.00 71 1012.1
20260508124237 46 125 0.0 4.0 0.00 0.00 0.00 71 1012.1
20260508124016 46 147 0.0 4.0 0.00 0.00 0.00 71 1011.8
20260508124006 46 165 1.0 4.0 0.00 0.00 0.00 71 1011.8
20260508124002 46 147 1.0 4.0 0.00 0.00 0.00 72 1012.1
20260508123953 46 131 0.0 4.0 0.00 0.00 0.00 72 1012.1
20260508123730 46 170 0.0 4.0 0.00 0.00 0.00 72 1011.8
20260508123722 45 164 0.0 4.0 0.00 0.00 0.00 73 1012.1
20260508123459 45 189 1.0 4.0 0.00 0.00 0.00 72 1012.1
20260508123450 45 185 1.0 4.0 0.00 0.00 0.00 72 1011.8
20260508123441 45 210 2.0 4.0 0.00 0.00 0.00 72 1012.1
20260508123218 45 183 2.0 4.0 0.00 0.00 0.00 72 1012.1
20260508123210 45 214 2.0 4.0 0.00 0.00 0.00 73 1012.1
20260508122947 45 211 2.0 4.0 0.00 0.00 0.00 73 1012.1
20260508122939 45 217 2.0 3.0 0.00 0.00 0.00 73 1012.1
20260508122718 44 211 2.0 3.0 0.00 0.00 0.00 75 1012.1
20260508122714 45 238 2.0 3.0 0.00 0.00 0.00 73 1012.1
20260508122706 45 207 1.0 3.0 0.00 0.00 0.00 73 1011.8
20260508122657 45 196 2.0 3.0 0.00 0.00 0.00 75 1012.1
20260508122430 45 181 1.0 3.0 0.00 0.00 0.00 75 1012.1
20260508122422 45 186 1.0 3.0 0.00 0.00 0.00 75 1011.8
20260508122159 44 197 1.0 3.0 0.00 0.00 0.00 75 1012.1
20260508122150 44 183 1.0 3.0 0.00 0.00 0.00 75 1011.8
20260508121922 44 186 2.0 3.0 0.00 0.00 0.00 75 1012.1
20260508121816 44 204 1.0 3.0 0.00 0.00 0.00 76 1011.8
20260508121711 44 202 2.0 3.0 0.00 0.00 0.00 75 1012.1
20260508121655 44 177 2.0 3.0 0.00 0.00 0.00 76 1012.1
20260508121651 44 185 1.0 3.0 0.00 0.00 0.00 76 1011.8
20260508121643 44 189 1.0 3.0 0.00 0.00 0.00 76 1011.8
20260508121354 44 165 2.0 2.0 0.00 0.00 0.00 76 1012.1
20260508121249 44 173 0.0 2.0 0.00 0.00 0.00 77 1011.8
20260508121142 44 206 2.0 2.0 0.00 0.00 0.00 77 1011.8
20260508121037 44 188 1.0 2.0 0.00 0.00 0.00 78 1011.8
20260508120930 44 186 0.0 2.0 0.00 0.00 0.00 78 1011.8
20260508120917 44 187 0.0 2.0 0.00 0.00 0.00 78 1011.8
20260508120912 43 189 1.0 2.0 0.00 0.00 0.00 78 1011.8
20260508120908 43 190 1.0 2.0 0.00 0.00 0.00 78 1011.8
20260508120900 43 188 0.0 2.0 0.00 0.00 0.00 78 1011.8
20260508120637 43 188 1.0 2.0 0.00 0.00 0.00 77 1011.8
20260508120628 43 199 1.0 2.0 0.00 0.00 0.00 77 1011.8
20260508120403 43 189 1.0 2.0 0.00 0.00 0.00 78 1011.8
20260508120258 43 200 1.0 2.0 0.00 0.00 0.00 78 1011.8
20260508120152 43 203 2.0 2.0 0.00 0.00 0.00 78 1011.8
20260508120057 43 193 1.0 2.0 0.00 0.00 0.00 78 1011.8
20260508115939 42 199 0.0 2.0 0.00 0.00 0.00 79 1011.8
20260508115901 42 183 1.0 2.0 0.00 0.00 0.00 79 1011.8
20260508115834 42 199 1.0 2.0 0.00 0.00 0.00 79 1011.8
20260508115728 42 195 1.0 2.0 0.00 0.00 0.00 79 1011.8
20260508115622 42 194 1.0 2.0 0.00 0.00 0.00 79 1011.8
20260508115516 42 201 1.0 2.0 0.00 0.00 0.00 80 1011.8
20260508115410 42 193 1.0 2.0 0.00 0.00 0.00 80 1011.8
20260508115355 42 193 1.0 2.0 0.00 0.00 0.00 80 1011.8
20260508115306 42 212 2.0 2.0 0.00 0.00 0.00 81 1011.8
20260508115159 41 199 1.0 2.0 0.00 0.00 0.00 81 1011.8
20260508115051 41 200 1.0 2.0 0.00 0.00 0.00 82 1011.8
20260508114945 41 200 1.0 1.0 0.00 0.00 0.00 83 1011.4
20260508114846 40 201 0.0 1.0 0.00 0.00 0.00 84 1011.4
20260508114840 40 201 0.0 1.0 0.00 0.00 0.00 84 1011.8
20260508114734 40 202 1.0 1.0 0.00 0.00 0.00 85 1011.8
20260508114628 40 203 0.0 1.0 0.00 0.00 0.00 85 1011.4
20260508114523 39 207 0.0 0.0 0.00 0.00 0.00 86 1011.4
20260508114417 39 226 0.0 0.0 0.00 0.00 0.00 87 1011.4
20260508114339 39 284 0.0 0.0 0.00 0.00 0.00 88 1011.4
20260508114312 39 6 0.0 0.0 0.00 0.00 0.00 88 1011.4
20260508114206 39 6 0.0 0.0 0.00 0.00 0.00 89 1011.4
20260508114100 38 6 0.0 0.0 0.00 0.00 0.00 90 1011.4
20260508113954 38 6 0.0 0.0 0.00 0.00 0.00 91 1011.4
20260508113833 38 7 0.0 0.0 0.00 0.00 0.00 91 1011.4
20260508113743 38 7 0.0 0.0 0.00 0.00 0.00 92 1011.4
20260508113637 38 7 0.0 0.0 0.00 0.00 0.00 92 1011.4
20260508113531 37 6 0.0 0.0 0.00 0.00 0.00 92 1011.8
20260508113426 37 6 0.0 0.0 0.00 0.00 0.00 92 1011.4
20260508113320 37 6 0.0 0.0 0.00 0.00 0.00 92 1011.4
20260508113215 37 6 0.0 0.0 0.00 0.00 0.00 92 1011.4
20260508113109 37 6 0.0 0.0 0.00 0.00 0.00 92 1011.4
20260508113005 37 6 0.0 0.0 0.00 0.00 0.00 92 1011.1
20260508112858 37 6 0.0 0.0 0.00 0.00 0.00 92 1011.4
20260508112821 37 6 0.0 0.0 0.00 0.00 0.00 92 1011.4
20260508112752 37 6 0.0 0.0 0.00 0.00 0.00 92 1011.4
20260508112646 37 6 0.0 0.0 0.00 0.00 0.00 92 1011.4
20260508112541 37 6 0.0 0.0 0.00 0.00 0.00 92 1011.4
20260508112435 37 6 0.0 0.0 0.00 0.00 0.00 92 1011.4
20260508112314 37 6 0.0 0.0 0.00 0.00 0.00 92 1011.4
20260508112224 37 6 0.0 0.0 0.00 0.00 0.00 92 1011.4
20260508112118 36 6 0.0 0.0 0.00 0.00 0.00 92 1011.4
20260508112012 36 6 0.0 0.0 0.00 0.00 0.00 92 1011.4
20260508111907 36 6 0.0 0.0 0.00 0.00 0.00 92 1011.1
20260508111807 36 6 0.0 0.0 0.00 0.00 0.00 92 1011.4
20260508111802 36 6 0.0 0.0 0.00 0.00 0.00 92 1011.4
20260508111653 36 6 0.0 0.0 0.00 0.00 0.00 92 1011.4
20260508111550 36 6 0.0 0.0 0.00 0.00 0.00 92 1011.4
20260508111441 36 6 0.0 0.0 0.00 0.00 0.00 92 1011.1
20260508111335 36 6 0.0 0.0 0.00 0.00 0.00 92 1011.1
20260508111230 36 6 0.0 0.0 0.00 0.00 0.00 92 1011.1
20260508111124 36 6 0.0 0.0 0.00 0.00 0.00 92 1011.1
20260508111018 36 6 0.0 0.0 0.00 0.00 0.00 92 1011.4
20260508110913 36 6 0.0 0.0 0.00 0.00 0.00 92 1011.4
20260508110810 36 6 0.0 0.0 0.00 0.00 0.00 92 1011.4
20260508110752 36 6 0.0 0.0 0.00 0.00 0.00 93 1011.4
20260508110701 36 6 0.0 0.0 0.00 0.00 0.00 92 1011.4
20260508110556 36 6 0.0 0.0 0.00 0.00 0.00 92 1011.4
20260508110450 36 6 0.0 0.0 0.00 0.00 0.00 93 1011.4
20260508110345 35 6 0.0 0.0 0.00 0.00 0.00 93 1011.4
20260508110239 35 6 0.0 0.0 0.00 0.00 0.00 93 1011.4
20260508110133 35 6 0.0 0.0 0.00 0.00 0.00 93 1011.4
20260508110027 35 6 0.0 0.0 0.00 0.00 0.00 93 1011.4
20260508105922 35 6 0.0 0.0 0.00 0.00 0.00 92 1011.4
20260508105817 35 6 0.0 0.0 0.00 0.00 0.00 92 1011.4
20260508105711 34 6 0.0 0.0 0.00 0.00 0.00 92 1011.4
20260508105602 34 6 0.0 0.0 0.00 0.00 0.00 92 1011.4
20260508105458 34 6 0.0 0.0 0.00 0.00 0.00 92 1011.4
20260508105352 34 6 0.0 0.0 0.00 0.00 0.00 92 1011.4
20260508105231 35 6 0.0 0.0 0.00 0.00 0.00 92 1011.4
20260508105140 35 6 0.0 0.0 0.00 0.00 0.00 92 1011.1
20260508105035 35 6 0.0 0.0 0.00 0.00 0.00 92 1011.1
20260508104929 35 6 0.0 0.0 0.00 0.00 0.00 92 1011.4
20260508104823 35 6 0.0 0.0 0.00 0.00 0.00 92 1011.4
20260508104718 35 6 0.0 0.0 0.00 0.00 0.00 92 1011.4
20260508104612 34 6 0.0 0.0 0.00 0.00 0.00 92 1011.4
20260508104506 34 6 0.0 0.0 0.00 0.00 0.00 92 1011.4
20260508104400 35 6 0.0 0.0 0.00 0.00 0.00 92 1011.4
20260508104225 35 6 0.0 0.0 0.00 0.00 0.00 92 1011.8
20260508104119 35 6 0.0 0.0 0.00 0.00 0.00 92 1011.8
20260508104013 35 6 0.0 0.0 0.00 0.00 0.00 92 1011.4
20260508103907 35 6 0.0 0.0 0.00 0.00 0.00 92 1011.4
20260508103801 35 6 0.0 0.0 0.00 0.00 0.00 92 1011.4
20260508103713 35 6 0.0 0.0 0.00 0.00 0.00 92 1011.4
20260508103656 35 6 0.0 0.0 0.00 0.00 0.00 92 1011.4
20260508103549 35 6 0.0 0.0 0.00 0.00 0.00 91 1011.4
20260508103443 35 6 0.0 0.0 0.00 0.00 0.00 91 1011.4
20260508103338 35 6 0.0 0.0 0.00 0.00 0.00 91 1011.4
20260508103205 35 6 0.0 0.0 0.00 0.00 0.00 91 1011.4
20260508103126 35 6 0.0 0.0 0.00 0.00 0.00 91 1011.4
20260508103021 35 6 0.0 0.0 0.00 0.00 0.00 91 1011.4
20260508102915 35 6 0.0 0.0 0.00 0.00 0.00 91 1011.4
20260508102810 35 6 0.0 0.0 0.00 0.00 0.00 91 1011.1
20260508102704 35 6 0.0 0.0 0.00 0.00 0.00 91 1011.1
20260508102558 35 6 0.0 0.0 0.00 0.00 0.00 91 1011.8
20260508102453 35 6 0.0 0.0 0.00 0.00 0.00 91 1011.8
20260508102339 35 6 0.0 0.0 0.00 0.00 0.00 91 1011.4
20260508102233 35 6 0.0 0.0 0.00 0.00 0.00 91 1011.4
20260508102156 35 6 0.0 0.0 0.00 0.00 0.00 91 1011.4
20260508102127 35 6 0.0 0.0 0.00 0.00 0.00 91 1011.4
20260508102021 35 6 0.0 0.0 0.00 0.00 0.00 91 1011.4
20260508101916 35 6 0.0 0.0 0.00 0.00 0.00 90 1011.4
20260508101811 35 6 0.0 0.0 0.00 0.00 0.00 90 1011.4
20260508101705 35 6 0.0 0.0 0.00 0.00 0.00 90 1011.4
20260508101650 35 6 0.0 0.0 0.00 0.00 0.00 90 1011.4
20260508101558 35 6 0.0 0.0 0.00 0.00 0.00 90 1011.4
20260508101454 35 6 0.0 0.0 0.00 0.00 0.00 90 1011.8
20260508101348 35 6 0.0 0.0 0.00 0.00 0.00 90 1011.4
20260508101242 35 6 0.0 0.0 0.00 0.00 0.00 90 1011.8
20260508101144 35 6 0.0 0.0 0.00 0.00 0.00 90 1011.8
20260508101137 35 6 0.0 0.0 0.00 0.00 0.00 90 1011.4
20260508101031 35 6 0.0 0.0 0.00 0.00 0.00 90 1011.4
20260508100925 35 6 0.0 0.0 0.00 0.00 0.00 90 1011.4
20260508100820 35 6 0.0 0.0 0.00 0.00 0.00 90 1011.4
20260508100715 35 6 0.0 0.0 0.00 0.00 0.00 90 1011.4
20260508100607 35 6 0.0 0.0 0.00 0.00 0.00 90 1011.4
20260508100501 35 6 0.0 0.0 0.00 0.00 0.00 90 1011.4
20260508100356 35 6 0.0 0.0 0.00 0.00 0.00 89 1011.4
20260508100250 35 6 0.0 0.0 0.00 0.00 0.00 89 1011.1
20260508100144 35 6 0.0 0.0 0.00 0.00 0.00 89 1011.1
20260508100129 36 6 0.0 0.0 0.00 0.00 0.00 89 1011.1
20260508100038 36 6 0.0 0.0 0.00 0.00 0.00 89 1011.4
20260508095932 36 6 0.0 0.0 0.00 0.00 0.00 89 1011.4
20260508095826 36 6 0.0 0.0 0.00 0.00 0.00 89 1011.1
20260508095721 36 6 0.0 0.0 0.00 0.00 0.00 89 1011.4
20260508095615 36 6 0.0 0.0 0.00 0.00 0.00 89 1011.4
20260508095511 36 6 0.0 0.0 0.00 0.00 0.00 89 1011.4
20260508095407 36 6 0.0 0.0 0.00 0.00 0.00 89 1011.4
20260508095258 36 6 0.0 0.0 0.00 0.00 0.00 89 1011.1
20260508095152 36 6 0.0 0.0 0.00 0.00 0.00 89 1011.4
20260508095116 36 6 0.0 0.0 0.00 0.00 0.00 89 1011.4
20260508095048 36 6 0.0 0.0 0.00 0.00 0.00 89 1011.4
20260508094955 36 6 0.0 0.0 0.00 0.00 0.00 89 1011.4
20260508094836 36 6 0.0 0.0 0.00 0.00 0.00 89 1011.4
20260508094730 36 6 0.0 0.0 0.00 0.00 0.00 89 1011.4
20260508094610 36 6 0.0 0.0 0.00 0.00 0.00 89 1011.4
20260508094518 36 6 0.0 0.0 0.00 0.00 0.00 89 1011.4
20260508094414 36 7 0.0 0.0 0.00 0.00 0.00 89 1011.4
20260508094308 36 7 0.0 0.0 0.00 0.00 0.00 89 1011.8
20260508094203 36 7 0.0 0.0 0.00 0.00 0.00 89 1011.8
20260508094103 36 7 0.0 0.0 0.00 0.00 0.00 88 1011.8
20260508094055 36 7 0.0 0.0 0.00 0.00 0.00 88 1011.8
20260508093949 36 7 0.0 0.0 0.00 0.00 0.00 88 1011.4
20260508093844 36 7 0.0 0.0 0.00 0.00 0.00 88 1011.8
20260508093739 37 7 0.0 0.0 0.00 0.00 0.00 88 1011.8
20260508093633 37 7 0.0 0.0 0.00 0.00 0.00 88 1011.8
20260508093527 37 7 0.0 0.0 0.00 0.00 0.00 88 1011.8
20260508093422 37 7 0.0 0.0 0.00 0.00 0.00 88 1011.8
20260508093315 37 7 0.0 0.0 0.00 0.00 0.00 88 1011.8
20260508093210 37 7 0.0 0.0 0.00 0.00 0.00 88 1011.4
20260508093049 37 7 0.0 0.0 0.00 0.00 0.00 88 1011.8
20260508092959 37 7 0.0 0.0 0.00 0.00 0.00 88 1011.4
20260508092904 37 7 0.0 0.0 0.00 0.00 0.00 88 1011.4
20260508092759 37 7 0.0 0.0 0.00 0.00 0.00 88 1011.4
20260508092653 37 7 0.0 0.0 0.00 0.00 0.00 88 1011.4
20260508092547 37 7 0.0 0.0 0.00 0.00 0.00 88 1011.4
20260508092441 37 7 0.0 0.0 0.00 0.00 0.00 88 1011.8
20260508092336 37 7 0.0 0.0 0.00 0.00 0.00 88 1011.4
20260508092231 37 7 0.0 0.0 0.00 0.00 0.00 88 1011.8
20260508092116 37 7 0.0 0.0 0.00 0.00 0.00 88 1011.8
20260508092050 37 7 0.0 0.0 0.00 0.00 0.00 88 1011.8
20260508092011 37 7 0.0 0.0 0.00 0.00 0.00 88 1011.4
20260508091905 37 7 0.0 0.0 0.00 0.00 0.00 87 1011.8
20260508091759 37 7 0.0 0.0 0.00 0.00 0.00 87 1011.4
20260508091735 40 153 0.0 1.0 0.00 0.00 0.00 81 1011.1
20260508091731 39 7 0.0 1.0 0.00 0.00 0.00 84 1011.4
20260508091726 37 7 0.0 0.0 0.00 0.00 0.00 86 1011.4
20260508091722 38 7 0.0 0.0 0.00 0.00 0.00 86 1011.8
20260508091718 37 7 0.0 0.0 0.00 0.00 0.00 87 1011.4
20260508091703 37 7 0.0 0.0 0.00 0.00 0.00 87 1011.8
20260508091439 37 7 0.0 0.0 0.00 0.00 0.00 87 1011.8
20260508091431 37 7 0.0 0.0 0.00 0.00 0.00 87 1011.8
20260508091410 37 7 0.0 0.0 0.00 0.00 0.00 87 1011.4
20260508091401 37 7 0.0 0.0 0.00 0.00 0.00 87 1011.8
20260508091136 38 7 0.0 0.0 0.00 0.00 0.00 86 1011.4
20260508090914 38 6 0.0 1.0 0.00 0.00 0.00 86 1011.8
20260508090911 38 7 0.0 0.0 0.00 0.00 0.00 86 1011.8
20260508090902 38 7 0.0 0.0 0.00 0.00 0.00 86 1011.8
20260508090853 38 7 0.0 0.0 0.00 0.00 0.00 86 1011.4
20260508090842 38 7 0.0 0.0 0.00 0.00 0.00 86 1011.8
20260508090623 38 7 0.0 0.0 0.00 0.00 0.00 86 1011.4
20260508090403 38 7 0.0 1.0 0.00 0.00 0.00 86 1011.4
20260508090355 38 7 0.0 1.0 0.00 0.00 0.00 86 1011.8
20260508090346 38 6 0.0 1.0 0.00 0.00 0.00 86 1011.4
20260508090125 38 6 0.0 1.0 0.00 0.00 0.00 86 1011.8
20260508090103 38 6 0.0 1.0 0.00 0.00 0.00 86 1011.8
20260508085836 38 6 0.0 1.0 0.00 0.00 0.00 86 1011.8
20260508085827 38 6 0.0 1.0 0.00 0.00 0.00 86 1011.8
20260508085551 39 6 0.0 1.0 0.00 0.00 0.00 85 1011.8
20260508085547 39 6 0.0 1.0 0.00 0.00 0.00 85 1011.8
20260508085538 39 6 1.0 1.0 0.00 0.00 0.00 85 1011.4
20260508085315 39 7 0.0 1.0 0.00 0.00 0.00 84 1011.8
20260508085307 39 7 0.0 1.0 0.00 0.00 0.00 84 1011.8
20260508085255 39 7 0.0 1.0 0.00 0.00 0.00 84 1011.4
20260508085036 39 7 0.0 1.0 0.00 0.00 0.00 84 1011.4
20260508084815 39 7 0.0 1.0 0.00 0.00 0.00 83 1011.8
20260508084806 39 7 0.0 1.0 0.00 0.00 0.00 83 1011.8
20260508084757 39 7 0.0 1.0 0.00 0.00 0.00 83 1011.8
20260508084532 39 7 0.0 1.0 0.00 0.00 0.00 83 1011.8
20260508084528 40 7 0.0 1.0 0.00 0.00 0.00 82 1011.8
20260508084520 40 7 1.0 1.0 0.00 0.00 0.00 82 1011.8
20260508084252 40 46 1.0 1.0 0.00 0.00 0.00 81 1011.8
20260508084243 40 153 0.0 1.0 0.00 0.00 0.00 81 1011.8
20260508084235 40 153 0.0 0.0 0.00 0.00 0.00 81 1011.4
20260508084009 40 153 0.0 0.0 0.00 0.00 0.00 81 1011.4
20260508084006 40 153 0.0 0.0 0.00 0.00 0.00 81 1011.8
20260508083957 40 153 0.0 0.0 0.00 0.00 0.00 81 1011.8
20260508083733 40 153 0.0 0.0 0.00 0.00 0.00 81 1011.4
20260508083724 40 153 0.0 1.0 0.00 0.00 0.00 81 1011.4
20260508083713 40 153 0.0 1.0 0.00 0.00 0.00 81 1011.1
20260508083355 40 153 0.0 1.0 0.00 0.00 0.00 80 1011.4
20260508083248 40 153 0.0 1.0 0.00 0.00 0.00 80 1011.4
20260508083141 40 153 0.0 1.0 0.00 0.00 0.00 80 1011.4
20260508083035 40 153 0.0 1.0 0.00 0.00 0.00 81 1011.8
20260508082930 40 153 0.0 1.0 0.00 0.00 0.00 81 1011.8
20260508082824 40 153 0.0 1.0 0.00 0.00 0.00 82 1011.8
20260508082719 40 153 0.0 1.0 0.00 0.00 0.00 82 1011.8
20260508082614 40 153 0.0 1.0 0.00 0.00 0.00 82 1011.8
20260508082508 40 154 0.0 0.0 0.00 0.00 0.00 82 1011.8
20260508082442 40 154 0.0 1.0 0.00 0.00 0.00 82 1011.8
20260508082403 40 154 0.0 1.0 0.00 0.00 0.00 82 1011.8
20260508082257 40 154 0.0 1.0 0.00 0.00 0.00 82 1011.8
20260508082152 40 154 0.0 1.0 0.00 0.00 0.00 82 1011.8
20260508082045 40 153 0.0 1.0 0.00 0.00 0.00 82 1011.8
20260508081940 40 153 0.0 1.0 0.00 0.00 0.00 81 1011.8
20260508081833 40 153 0.0 1.0 0.00 0.00 0.00 81 1011.8
20260508081729 40 153 0.0 1.0 0.00 0.00 0.00 81 1011.8
20260508081623 40 153 0.0 1.0 0.00 0.00 0.00 81 1011.8
20260508081517 40 153 0.0 1.0 0.00 0.00 0.00 81 1011.8
20260508081429 40 139 0.0 1.0 0.00 0.00 0.00 81 1011.8
20260508081412 40 50 0.0 1.0 0.00 0.00 0.00 81 1011.8
20260508081307 41 49 0.0 1.0 0.00 0.00 0.00 81 1011.8
20260508081200 41 49 0.0 1.0 0.00 0.00 0.00 80 1011.8
20260508081054 40 52 0.0 1.0 0.00 0.00 0.00 80 1011.8
20260508080923 41 52 1.0 1.0 0.00 0.00 0.00 80 1011.8
20260508080845 41 67 1.0 1.0 0.00 0.00 0.00 80 1011.8
20260508080738 41 69 0.0 2.0 0.00 0.00 0.00 80 1011.4
20260508080632 41 96 1.0 2.0 0.00 0.00 0.00 80 1011.4
20260508080526 41 172 0.0 2.0 0.00 0.00 0.00 80 1011.8
20260508080420 41 172 0.0 2.0 0.00 0.00 0.00 80 1011.8
20260508080315 41 210 0.0 3.0 0.00 0.00 0.00 80 1011.8
20260508080210 41 233 0.0 3.0 0.00 0.00 0.00 80 1011.8
20260508080105 41 220 0.0 3.0 0.00 0.00 0.00 80 1011.4
20260508075958 41 190 0.0 3.0 0.00 0.00 0.00 80 1011.4
20260508075909 41 189 0.0 3.0 0.00 0.00 0.00 81 1011.8
20260508075853 40 189 1.0 3.0 0.00 0.00 0.00 81 1011.8
20260508075747 40 146 0.0 3.0 0.00 0.00 0.00 82 1011.4
20260508075641 40 158 1.0 3.0 0.00 0.00 0.00 82 1011.4
20260508075535 40 253 1.0 3.0 0.00 0.00 0.00 82 1011.8
20260508075429 40 262 1.0 3.0 0.00 0.00 0.00 83 1011.4
20260508075404 40 311 2.0 3.0 0.00 0.00 0.00 83 1011.4
20260508075324 40 324 2.0 3.0 0.00 0.00 0.00 83 1011.4
20260508075218 40 279 2.0 3.0 0.00 0.00 0.00 83 1011.4
20260508075114 40 98 0.0 3.0 0.00 0.00 0.00 83 1011.4
20260508075007 40 98 2.0 3.0 0.00 0.00 0.00 83 1011.1
20260508074902 40 109 1.0 3.0 0.00 0.00 0.00 82 1011.1
20260508074756 40 99 1.0 3.0 0.00 0.00 0.00 82 1011.1
20260508074651 40 98 2.0 3.0 0.00 0.00 0.00 82 1011.1
20260508074545 40 99 2.0 3.0 0.00 0.00 0.00 82 1011.1
20260508074439 40 129 0.0 0.0 0.00 0.00 0.00 82 1011.1
20260508074350 40 147 0.0 0.0 0.00 0.00 0.00 82 1011.1
20260508074323 40 147 0.0 0.0 0.00 0.00 0.00 82 1011.4
20260508074217 40 146 0.0 0.0 0.00 0.00 0.00 82 1011.4
20260508074112 40 145 0.0 0.0 0.00 0.00 0.00 82 1011.4
20260508074006 40 141 0.0 0.0 0.00 0.00 0.00 82 1011.1
20260508073833 40 122 0.0 0.0 0.00 0.00 0.00 82 1011.1
20260508073754 40 122 0.0 0.0 0.00 0.00 0.00 82 1011.1
20260508073648 40 122 0.0 0.0 0.00 0.00 0.00 82 1011.1
20260508073544 40 121 0.0 0.0 0.00 0.00 0.00 81 1011.8
20260508073438 40 122 0.0 0.0 0.00 0.00 0.00 81 1011.1
20260508073332 41 122 0.0 0.0 0.00 0.00 0.00 81 1011.4
20260508073226 41 122 0.0 0.0 0.00 0.00 0.00 81 1011.4
20260508073120 41 121 0.0 0.0 0.00 0.00 0.00 81 1011.4
20260508073014 41 121 0.0 0.0 0.00 0.00 0.00 81 1011.4
20260508072908 41 121 0.0 0.0 0.00 0.00 0.00 81 1011.4
20260508072820 41 121 0.0 0.0 0.00 0.00 0.00 81 1011.4
20260508072802 41 121 0.0 0.0 0.00 0.00 0.00 81 1011.4
20260508072656 41 121 0.0 0.0 0.00 0.00 0.00 81 1011.4
20260508072551 41 121 0.0 0.0 0.00 0.00 0.00 81 1011.4
20260508072445 41 121 0.0 0.0 0.00 0.00 0.00 80 1011.8
20260508072313 41 121 0.0 0.0 0.00 0.00 0.00 80 1011.8
20260508072234 41 121 0.0 0.0 0.00 0.00 0.00 80 1011.8
20260508072129 41 121 0.0 0.0 0.00 0.00 0.00 80 1011.8
20260508072022 41 121 0.0 0.0 0.00 0.00 0.00 80 1011.4
20260508071918 41 121 0.0 0.0 0.00 0.00 0.00 80 1011.8
20260508071812 41 122 0.0 0.0 0.00 0.00 0.00 80 1011.4
20260508071706 41 122 0.0 0.0 0.00 0.00 0.00 80 1011.8
20260508071600 42 122 0.0 0.0 0.00 0.00 0.00 80 1011.8
20260508071454 42 122 0.0 0.0 0.00 0.00 0.00 80 1011.8
20260508071349 42 122 0.0 0.0 0.00 0.00 0.00 80 1011.4
20260508071301 42 121 0.0 0.0 0.00 0.00 0.00 80 1011.8
20260508071243 42 121 0.0 0.0 0.00 0.00 0.00 80 1011.8
20260508071137 42 122 0.0 0.0 0.00 0.00 0.00 80 1011.4
20260508071032 42 122 0.0 0.0 0.00 0.00 0.00 80 1011.8
20260508070927 42 120 0.0 0.0 0.00 0.00 0.00 80 1011.8
20260508070834 42 122 0.0 0.0 0.00 0.00 0.00 81 1011.4
20260508070755 42 106 0.0 0.0 0.00 0.00 0.00 81 1011.4
20260508070715 42 44 0.0 0.0 0.00 0.00 0.00 81 1011.4
20260508070623 42 41 0.0 0.0 0.00 0.00 0.00 81 1011.8
20260508070504 42 42 0.0 0.0 0.00 0.00 0.00 81 1011.8
20260508070358 42 41 0.0 0.0 0.00 0.00 0.00 81 1011.8
20260508070253 42 41 0.0 0.0 0.00 0.00 0.00 81 1011.8
20260508070147 42 41 0.0 0.0 0.00 0.00 0.00 81 1011.4
20260508070041 41 41 0.0 0.0 0.00 0.00 0.00 80 1011.8
20260508065935 41 34 0.0 0.0 0.00 0.00 0.00 80 1011.8
20260508065829 41 33 0.0 0.0 0.00 0.00 0.00 81 1011.8
20260508065742 41 33 0.0 0.0 0.00 0.00 0.00 80 1011.8
20260508065724 41 33 0.0 0.0 0.00 0.00 0.00 81 1012.1
20260508065618 41 33 0.0 0.0 0.00 0.00 0.00 81 1012.1
20260508065513 41 33 0.0 0.0 0.00 0.00 0.00 81 1012.1
20260508065420 41 33 0.0 0.0 0.00 0.00 0.00 81 1011.8
20260508065301 41 33 0.0 0.0 0.00 0.00 0.00 81 1011.8
20260508065235 41 34 0.0 0.0 0.00 0.00 0.00 81 1011.8
20260508065208 41 34 0.0 0.0 0.00 0.00 0.00 81 1011.8
20260508065050 41 33 0.0 0.0 0.00 0.00 0.00 81 1011.8
20260508064944 41 34 0.0 0.0 0.00 0.00 0.00 81 1011.8
20260508064838 41 34 0.0 0.0 0.00 0.00 0.00 81 1011.8
20260508064733 41 34 0.0 0.0 0.00 0.00 0.00 81 1011.8
20260508064627 41 34 0.0 0.0 0.00 0.00 0.00 81 1011.8
20260508064523 42 34 0.0 0.0 0.00 0.00 0.00 80 1011.8
20260508064416 42 34 0.0 0.0 0.00 0.00 0.00 80 1011.8
20260508064311 42 34 0.0 0.0 0.00 0.00 0.00 80 1011.8
20260508064222 42 34 0.0 0.0 0.00 0.00 0.00 80 1011.8
20260508064205 42 34 0.0 0.0 0.00 0.00 0.00 80 1011.8
20260508064059 42 34 0.0 0.0 0.00 0.00 0.00 80 1011.8
20260508063954 42 34 0.0 0.0 0.00 0.00 0.00 80 1011.8
20260508063849 42 34 0.0 0.0 0.00 0.00 0.00 80 1011.8
20260508063743 42 37 0.0 0.0 0.00 0.00 0.00 80 1011.8
20260508063717 42 41 0.0 0.0 0.00 0.00 0.00 80 1011.8
20260508063637 42 41 0.0 0.0 0.00 0.00 0.00 80 1011.8
20260508063532 42 41 0.0 0.0 0.00 0.00 0.00 80 1011.8
20260508063426 42 41 0.0 0.0 0.00 0.00 0.00 80 1011.8
20260508063320 42 41 0.0 0.0 0.00 0.00 0.00 80 1011.4
20260508063215 42 41 0.0 0.0 0.00 0.00 0.00 80 1011.8
20260508063121 42 41 0.0 0.0 0.00 0.00 0.00 80 1011.8
20260508063005 42 41 0.0 0.0 0.00 0.00 0.00 80 1011.8
20260508062858 42 40 0.0 0.0 0.00 0.00 0.00 80 1011.8
20260508062752 42 41 0.0 0.0 0.00 0.00 0.00 80 1011.8
20260508062703 42 41 0.0 0.0 0.00 0.00 0.00 80 1011.8
20260508062646 42 40 0.0 0.0 0.00 0.00 0.00 80 1011.8
20260508062539 42 54 0.0 0.0 0.00 0.00 0.00 80 1011.8
20260508062433 42 48 0.0 0.0 0.00 0.00 0.00 80 1011.8
20260508062342 42 36 0.0 0.0 0.00 0.00 0.00 80 1011.8
20260508062222 42 31 0.0 0.0 0.00 0.00 0.00 79 1012.1
20260508062156 42 31 0.0 0.0 0.00 0.00 0.00 79 1012.1
20260508062118 42 43 0.0 0.0 0.00 0.00 0.00 79 1012.1
20260508062010 42 55 0.0 0.0 0.00 0.00 0.00 79 1011.8
20260508061906 42 50 0.0 0.0 0.00 0.00 0.00 78 1011.8
20260508061800 42 25 0.0 0.0 0.00 0.00 0.00 78 1011.8
20260508061654 42 321 0.0 0.0 0.00 0.00 0.00 78 1011.8
20260508061546 42 33 0.0 2.0 0.00 0.00 0.00 79 1011.8
20260508061441 42 73 0.0 2.0 0.00 0.00 0.00 79 1011.8
20260508061334 43 73 0.0 2.0 0.00 0.00 0.00 79 1011.8
20260508061228 43 73 0.0 2.0 0.00 0.00 0.00 78 1011.4
20260508061123 43 73 0.0 4.0 0.00 0.00 0.00 78 1011.4
20260508061018 43 73 0.0 4.0 0.00 0.00 0.00 78 1011.8
20260508060911 43 73 0.0 4.0 0.00 0.00 0.00 78 1011.8
20260508060807 43 82 0.0 4.0 0.00 0.00 0.00 78 1011.4
20260508060702 43 83 0.0 4.0 0.00 0.00 0.00 78 1011.8
20260508060631 43 80 0.0 4.0 0.00 0.00 0.00 78 1011.8
20260508060552 43 99 1.0 4.0 0.00 0.00 0.00 77 1011.8
20260508060447 43 125 0.0 4.0 0.00 0.00 0.00 78 1011.8
20260508060342 43 67 0.0 4.0 0.00 0.00 0.00 77 1012.1
20260508060236 43 349 2.0 4.0 0.00 0.00 0.00 77 1012.1
20260508060129 43 319 2.0 3.0 0.00 0.00 0.00 77 1012.4
20260508060024 43 320 3.0 3.0 0.00 0.00 0.00 78 1012.1
20260508055919 44 336 2.0 2.0 0.00 0.00 0.00 78 1011.8
20260508055813 44 345 1.0 2.0 0.00 0.00 0.00 79 1011.8
20260508055707 44 27 0.0 2.0 0.00 0.00 0.00 78 1011.8
20260508055619 44 27 1.0 2.0 0.00 0.00 0.00 78 1011.8
20260508055601 44 27 1.0 1.0 0.00 0.00 0.00 78 1011.8
20260508055455 44 21 1.0 1.0 0.00 0.00 0.00 77 1011.8
20260508055349 44 73 0.0 1.0 0.00 0.00 0.00 77 1011.4
20260508055243 44 119 0.0 0.0 0.00 0.00 0.00 77 1011.8
20260508055112 44 119 0.0 0.0 0.00 0.00 0.00 77 1011.8
20260508055032 44 119 0.0 0.0 0.00 0.00 0.00 77 1011.8
20260508054927 44 119 0.0 0.0 0.00 0.00 0.00 77 1011.8
20260508054821 44 119 0.0 1.0 0.00 0.00 0.00 77 1011.8
20260508054715 44 113 0.0 1.0 0.00 0.00 0.00 77 1011.8
20260508054610 44 113 0.0 3.0 0.00 0.00 0.00 77 1011.8
20260508054504 44 113 0.0 3.0 0.00 0.00 0.00 77 1011.8
20260508054359 44 104 0.0 3.0 0.00 0.00 0.00 78 1011.8
20260508054253 44 113 0.0 3.0 0.00 0.00 0.00 79 1011.8
20260508054148 44 73 0.0 3.0 0.00 0.00 0.00 80 1011.4
20260508054100 44 62 0.0 3.0 0.00 0.00 0.00 80 1011.8
20260508054042 44 61 0.0 3.0 0.00 0.00 0.00 80 1011.8
20260508053936 44 60 0.0 3.0 0.00 0.00 0.00 80 1011.8
20260508053830 44 59 0.0 3.0 0.00 0.00 0.00 81 1011.8
20260508053725 44 58 0.0 3.0 0.00 0.00 0.00 82 1011.8
20260508053619 44 28 0.0 1.0 0.00 0.00 0.00 82 1011.8
20260508053553 44 27 0.0 1.0 0.00 0.00 0.00 82 1011.8
20260508053513 44 19 0.0 1.0 0.00 0.00 0.00 81 1011.8
20260508053407 44 17 0.0 1.0 0.00 0.00 0.00 81 1012.1
20260508053301 44 10 0.0 1.0 0.00 0.00 0.00 80 1012.1
20260508053155 44 11 0.0 1.0 0.00 0.00 0.00 80 1012.1
20260508053049 44 349 1.0 1.0 0.00 0.00 0.00 79 1012.1
20260508052943 44 337 1.0 1.0 0.00 0.00 0.00 78 1012.1
20260508052837 44 343 0.0 1.0 0.00 0.00 0.00 78 1012.1
20260508052732 44 343 0.0 0.0 0.00 0.00 0.00 78 1011.8
20260508052627 44 342 0.0 0.0 0.00 0.00 0.00 77 1012.1
20260508052533 44 326 0.0 0.0 0.00 0.00 0.00 77 1011.8
20260508052415 44 193 0.0 0.0 0.00 0.00 0.00 77 1012.1
20260508052309 45 193 0.0 0.0 0.00 0.00 0.00 76 1011.8
20260508052206 45 193 0.0 0.0 0.00 0.00 0.00 77 1012.1
20260508052100 45 196 0.0 0.0 0.00 0.00 0.00 77 1011.8
20260508052033 45 196 0.0 0.0 0.00 0.00 0.00 76 1011.8
20260508051954 45 196 0.0 0.0 0.00 0.00 0.00 76 1011.8
20260508051848 45 196 0.0 0.0 0.00 0.00 0.00 76 1011.8
20260508051742 45 196 0.0 0.0 0.00 0.00 0.00 76 1011.8
20260508051637 45 193 0.0 1.0 0.00 0.00 0.00 76 1011.8
20260508051531 45 193 0.0 1.0 0.00 0.00 0.00 76 1011.8
20260508051426 45 193 0.0 2.0 0.00 0.00 0.00 76 1011.8
20260508051320 45 190 0.0 2.0 0.00 0.00 0.00 76 1011.8
20260508051214 45 190 0.0 2.0 0.00 0.00 0.00 76 1011.8
20260508051136 44 205 0.0 1.0 0.00 0.00 0.00 75 1011.8
20260508051132 44 202 0.0 0.0 0.00 0.00 0.00 74 1012.1
20260508051128 44 278 0.0 2.0 0.00 0.00 0.00 74 1012.4
20260508051123 45 207 1.0 3.0 0.00 0.00 0.00 75 1011.8
20260508051119 45 211 2.0 3.0 0.00 0.00 0.00 74 1012.1
20260508051115 45 191 0.0 2.0 0.00 0.00 0.00 76 1011.8
20260508051105 45 191 0.0 3.0 0.00 0.00 0.00 75 1011.8
20260508051100 45 190 0.0 3.0 0.00 0.00 0.00 76 1011.8
20260508051052 45 189 0.0 3.0 0.00 0.00 0.00 76 1011.8
20260508050830 45 188 0.0 3.0 0.00 0.00 0.00 75 1012.1
20260508050821 45 200 1.0 3.0 0.00 0.00 0.00 75 1011.8
20260508050800 45 206 1.0 3.0 0.00 0.00 0.00 75 1011.8
20260508050538 45 204 0.0 3.0 0.00 0.00 0.00 75 1011.8
20260508050529 45 202 1.0 3.0 0.00 0.00 0.00 75 1012.1
20260508050306 45 194 1.0 3.0 0.00 0.00 0.00 75 1012.1
20260508050257 45 201 0.0 3.0 0.00 0.00 0.00 74 1011.8
20260508050246 45 211 2.0 3.0 0.00 0.00 0.00 74 1012.1
20260508050027 45 186 2.0 3.0 0.00 0.00 0.00 74 1011.8
20260508045807 45 228 0.0 2.0 0.00 0.00 0.00 74 1012.1
20260508045803 45 187 2.0 3.0 0.00 0.00 0.00 74 1011.8
20260508045754 45 205 2.0 3.0 0.00 0.00 0.00 74 1012.1
20260508045746 45 177 1.0 2.0 0.00 0.00 0.00 74 1012.1
20260508045524 45 204 1.0 2.0 0.00 0.00 0.00 74 1012.1
20260508045515 45 210 1.0 2.0 0.00 0.00 0.00 75 1012.1
20260508045255 45 231 1.0 2.0 0.00 0.00 0.00 74 1012.1
20260508045247 45 173 1.0 2.0 0.00 0.00 0.00 75 1012.1
20260508045026 45 213 1.0 2.0 0.00 0.00 0.00 75 1012.1
20260508045016 45 243 1.0 2.0 0.00 0.00 0.00 75 1012.1
20260508045012 45 249 1.0 2.0 0.00 0.00 0.00 74 1012.1
20260508045003 45 198 1.0 2.0 0.00 0.00 0.00 75 1012.1
20260508044744 44 212 2.0 2.0 0.00 0.00 0.00 75 1012.4
20260508044735 44 222 2.0 2.0 0.00 0.00 0.00 74 1012.1
20260508044725 44 278 0.0 2.0 0.00 0.00 0.00 74 1012.4
20260508044504 44 334 0.0 2.0 0.00 0.00 0.00 74 1012.1
20260508044455 44 261 1.0 2.0 0.00 0.00 0.00 74 1011.8
20260508044230 44 281 1.0 2.0 0.00 0.00 0.00 74 1012.1
20260508044222 44 263 1.0 2.0 0.00 0.00 0.00 74 1012.1
20260508043956 44 240 1.0 2.0 0.00 0.00 0.00 74 1012.1
20260508043952 44 282 0.0 2.0 0.00 0.00 0.00 74 1012.1
20260508043943 44 291 0.0 2.0 0.00 0.00 0.00 74 1012.1
20260508043724 44 290 0.0 2.0 0.00 0.00 0.00 74 1012.1
20260508043715 44 307 0.0 1.0 0.00 0.00 0.00 74 1012.1
20260508043707 44 282 1.0 1.0 0.00 0.00 0.00 75 1012.1
20260508043441 44 258 0.0 1.0 0.00 0.00 0.00 75 1011.8
20260508043432 44 210 0.0 0.0 0.00 0.00 0.00 75 1012.1
20260508043207 44 210 0.0 0.0 0.00 0.00 0.00 73 1012.1
20260508043159 44 210 0.0 0.0 0.00 0.00 0.00 73 1011.8
20260508043148 44 202 0.0 0.0 0.00 0.00 0.00 74 1012.1
20260508042829 44 207 0.0 0.0 0.00 0.00 0.00 74 1012.1
20260508042724 44 200 0.0 0.0 0.00 0.00 0.00 75 1011.8
20260508042618 44 195 0.0 0.0 0.00 0.00 0.00 74 1011.8
20260508042511 44 195 0.0 0.0 0.00 0.00 0.00 74 1012.1
20260508042423 44 196 0.0 0.0 0.00 0.00 0.00 73 1012.1
20260508042407 44 203 0.0 0.0 0.00 0.00 0.00 73 1012.1
20260508042259 44 221 0.0 0.0 0.00 0.00 0.00 73 1012.1
20260508042153 44 220 0.0 0.0 0.00 0.00 0.00 74 1012.1
20260508042048 44 219 0.0 0.0 0.00 0.00 0.00 73 1011.8
20260508041942 44 193 0.0 1.0 0.00 0.00 0.00 74 1012.1
20260508041915 44 193 0.0 2.0 0.00 0.00 0.00 74 1012.1
20260508041842 44 193 0.0 2.0 0.00 0.00 0.00 75 1012.1
20260508041831 44 193 0.0 2.0 0.00 0.00 0.00 74 1012.1
20260508041629 44 196 0.0 2.0 0.00 0.00 0.00 73 1011.8
20260508041519 44 197 0.0 6.0 0.00 0.00 0.00 73 1011.8
20260508041413 44 254 0.0 7.0 0.00 0.00 0.00 73 1011.8
20260508041308 45 256 0.0 7.0 0.00 0.00 0.00 73 1012.1
20260508041202 45 256 0.0 7.0 0.00 0.00 0.00 72 1012.1
20260508041119 46 258 0.0 7.0 0.00 0.00 0.00 72 1012.1
20260508040951 46 273 1.0 7.0 0.00 0.00 0.00 70 1012.1
20260508040903 46 235 1.0 7.0 0.00 0.00 0.00 67 1012.1
20260508040846 46 249 1.0 7.0 0.00 0.00 0.00 67 1012.1
20260508040740 46 207 2.0 7.0 0.00 0.00 0.00 66 1011.8
20260508040634 46 199 0.0 7.0 0.00 0.00 0.00 67 1011.8
20260508040531 45 196 2.0 7.0 0.00 0.00 0.00 66 1012.1
20260508040522 44 217 5.0 7.0 0.00 0.00 0.00 68 1012.1
20260508040357 44 273 3.0 7.0 0.00 0.00 0.00 70 1012.1
20260508040317 44 188 1.0 2.0 0.00 0.00 0.00 72 1012.1
20260508040212 44 200 1.0 2.0 0.00 0.00 0.00 73 1012.1
20260508040110 44 216 2.0 2.0 0.00 0.00 0.00 73 1011.8
20260508040000 44 218 1.0 2.0 0.00 0.00 0.00 73 1011.8
20260508035854 44 119 0.0 0.0 0.00 0.00 0.00 71 1011.8
20260508035751 45 45 0.0 0.0 0.00 0.00 0.00 70 1011.8
20260508035645 45 224 0.0 0.0 0.00 0.00 0.00 70 1012.1
20260508035539 45 218 0.0 0.0 0.00 0.00 0.00 68 1011.8
20260508035433 45 218 0.0 0.0 0.00 0.00 0.00 68 1012.1
20260508035328 44 210 0.0 0.0 0.00 0.00 0.00 68 1011.8
20260508035222 44 212 0.0 0.0 0.00 0.00 0.00 68 1011.8
20260508035117 45 212 0.0 0.0 0.00 0.00 0.00 69 1011.8
20260508035011 45 203 0.0 0.0 0.00 0.00 0.00 70 1011.8
20260508034905 45 203 0.0 0.0 0.00 0.00 0.00 70 1011.8
20260508034817 45 203 0.0 0.0 0.00 0.00 0.00 69 1011.8
20260508034801 45 205 0.0 0.0 0.00 0.00 0.00 69 1011.8
20260508034654 45 229 0.0 0.0 0.00 0.00 0.00 68 1011.8
20260508034548 45 240 0.0 0.0 0.00 0.00 0.00 69 1012.1
20260508034442 45 251 0.0 0.0 0.00 0.00 0.00 68 1011.8
20260508034311 45 298 0.0 0.0 0.00 0.00 0.00 65 1011.8
20260508034231 45 298 0.0 0.0 0.00 0.00 0.00 65 1011.8
20260508034125 45 298 0.0 0.0 0.00 0.00 0.00 66 1011.8
20260508034020 45 298 0.0 0.0 0.00 0.00 0.00 67 1011.4
20260508033914 45 299 0.0 0.0 0.00 0.00 0.00 65 1011.4
20260508033809 45 299 0.0 0.0 0.00 0.00 0.00 65 1011.4
20260508033703 45 299 0.0 0.0 0.00 0.00 0.00 64 1011.4
20260508033558 45 299 0.0 0.0 0.00 0.00 0.00 64 1011.4
20260508033452 45 299 0.0 0.0 0.00 0.00 0.00 64 1011.4
20260508033346 45 299 0.0 0.0 0.00 0.00 0.00 64 1011.4
20260508033241 45 299 0.0 0.0 0.00 0.00 0.00 64 1011.4
20260508033135 45 299 0.0 0.0 0.00 0.00 0.00 64 1011.4
20260508033030 45 299 0.0 0.0 0.00 0.00 0.00 63 1011.4
20260508032924 45 299 0.0 0.0 0.00 0.00 0.00 64 1011.4
20260508032818 45 299 0.0 0.0 0.00 0.00 0.00 63 1011.4
20260508032752 45 299 0.0 0.0 0.00 0.00 0.00 63 1011.4
20260508032713 45 299 0.0 0.0 0.00 0.00 0.00 63 1011.8
20260508032607 45 299 0.0 0.0 0.00 0.00 0.00 63 1011.4
20260508032501 45 299 0.0 0.0 0.00 0.00 0.00 63 1011.4
20260508032355 45 299 0.0 0.0 0.00 0.00 0.00 63 1011.8
20260508032250 45 299 0.0 0.0 0.00 0.00 0.00 63 1011.8
20260508032144 45 299 0.0 0.0 0.00 0.00 0.00 63 1011.8
20260508032038 45 299 0.0 0.0 0.00 0.00 0.00 63 1011.8
20260508031932 45 299 0.0 0.0 0.00 0.00 0.00 63 1011.8
20260508031827 45 299 0.0 0.0 0.00 0.00 0.00 63 1011.8
20260508031722 45 299 0.0 0.0 0.00 0.00 0.00 63 1011.4
20260508031616 45 299 0.0 0.0 0.00 0.00 0.00 64 1011.8
20260508031510 45 299 0.0 0.0 0.00 0.00 0.00 64 1011.8
20260508031404 45 299 0.0 0.0 0.00 0.00 0.00 64 1011.8
20260508031233 45 299 0.0 0.0 0.00 0.00 0.00 65 1011.8
20260508031153 45 299 0.0 0.0 0.00 0.00 0.00 64 1011.8
20260508031048 45 299 0.0 0.0 0.00 0.00 0.00 64 1011.8
20260508030942 45 299 0.0 0.0 0.00 0.00 0.00 64 1011.8
20260508030836 45 299 0.0 0.0 0.00 0.00 0.00 64 1011.8
20260508030731 46 299 0.0 0.0 0.00 0.00 0.00 64 1012.1
20260508030637 46 299 0.0 0.0 0.00 0.00 0.00 64 1012.1
20260508030519 46 299 0.0 0.0 0.00 0.00 0.00 64 1012.1
20260508030437 49 336 3.0 4.0 0.00 0.00 0.00 54 1011.8
20260508030433 49 226 0.0 4.0 0.00 0.00 0.00 56 1011.8
20260508030428 49 302 0.0 4.0 0.00 0.00 0.00 57 1011.8
20260508030424 46 299 0.0 0.0 0.00 0.00 0.00 63 1012.1
20260508030416 46 299 0.0 0.0 0.00 0.00 0.00 62 1012.1
20260508030352 46 299 0.0 0.0 0.00 0.00 0.00 62 1012.1
20260508030348 46 299 0.0 0.0 0.00 0.00 0.00 62 1012.1
20260508030128 50 310 1.0 9.0 0.00 0.00 0.00 52 1011.4
20260508030123 46 299 0.0 0.0 0.00 0.00 0.00 61 1011.8
20260508030115 46 299 0.0 0.0 0.00 0.00 0.00 61 1011.8
20260508025825 46 299 0.0 0.0 0.00 0.00 0.00 61 1012.1
20260508025821 46 299 0.0 0.0 0.00 0.00 0.00 60 1012.1
20260508025557 46 299 0.0 0.0 0.00 0.00 0.00 60 1012.1
20260508025549 46 299 0.0 0.0 0.00 0.00 0.00 60 1011.8
20260508025326 46 299 0.0 0.0 0.00 0.00 0.00 61 1012.1
20260508025311 46 299 0.0 0.0 0.00 0.00 0.00 60 1011.8
20260508025306 47 299 0.0 0.0 0.00 0.00 0.00 60 1011.8
20260508025042 48 298 0.0 4.0 0.00 0.00 0.00 57 1011.8
20260508025038 47 298 0.0 0.0 0.00 0.00 0.00 61 1011.8
20260508025029 47 299 0.0 0.0 0.00 0.00 0.00 60 1011.8
20260508024800 47 299 0.0 0.0 0.00 0.00 0.00 60 1012.1
20260508024756 47 299 0.0 0.0 0.00 0.00 0.00 60 1012.1
20260508024534 47 299 0.0 0.0 0.00 0.00 0.00 60 1012.1
20260508024526 47 299 0.0 0.0 0.00 0.00 0.00 60 1012.1
20260508024517 47 299 0.0 0.0 0.00 0.00 0.00 59 1011.8
20260508024253 47 299 0.0 0.0 0.00 0.00 0.00 59 1012.1
20260508024238 47 299 0.0 0.0 0.00 0.00 0.00 59 1012.1
20260508024017 47 305 0.0 0.0 0.00 0.00 0.00 59 1012.1
20260508024008 47 304 0.0 0.0 0.00 0.00 0.00 59 1011.8
20260508024000 47 304 0.0 0.0 0.00 0.00 0.00 59 1012.1
20260508023739 47 304 0.0 0.0 0.00 0.00 0.00 59 1011.8
20260508023734 47 304 0.0 1.0 0.00 0.00 0.00 59 1011.8
20260508023726 47 304 0.0 1.0 0.00 0.00 0.00 59 1011.8
20260508023506 48 305 0.0 1.0 0.00 0.00 0.00 59 1011.8
20260508023458 48 304 0.0 1.0 0.00 0.00 0.00 58 1011.8
20260508023237 48 302 0.0 1.0 0.00 0.00 0.00 58 1011.8
20260508023227 48 354 0.0 1.0 0.00 0.00 0.00 59 1011.8
20260508023222 48 305 0.0 1.0 0.00 0.00 0.00 59 1011.8
20260508023214 48 299 0.0 3.0 0.00 0.00 0.00 58 1011.8
20260508022953 49 318 1.0 1.0 0.00 0.00 0.00 54 1011.8
20260508022949 48 316 0.0 3.0 0.00 0.00 0.00 57 1011.8
20260508022940 48 315 0.0 3.0 0.00 0.00 0.00 58 1011.8
20260508022709 48 328 1.0 3.0 0.00 0.00 0.00 58 1011.8
20260508022705 48 307 0.0 3.0 0.00 0.00 0.00 58 1011.8
20260508022657 48 280 0.0 3.0 0.00 0.00 0.00 57 1011.8
20260508022436 48 310 0.0 3.0 0.00 0.00 0.00 57 1011.4
20260508022428 48 312 0.0 3.0 0.00 0.00 0.00 57 1011.8
20260508022202 48 331 0.0 3.0 0.00 0.00 0.00 57 1011.8
20260508022158 48 317 0.0 3.0 0.00 0.00 0.00 57 1011.8
20260508022149 48 322 1.0 2.0 0.00 0.00 0.00 57 1011.8
20260508021929 48 350 1.0 4.0 0.00 0.00 0.00 57 1011.8
20260508021921 48 278 0.0 4.0 0.00 0.00 0.00 56 1011.8
20260508021912 48 281 0.0 4.0 0.00 0.00 0.00 57 1011.8
20260508021651 48 299 0.0 4.0 0.00 0.00 0.00 57 1011.8
20260508021642 48 222 0.0 4.0 0.00 0.00 0.00 56 1011.8
20260508021417 48 273 0.0 4.0 0.00 0.00 0.00 57 1011.8
20260508021408 49 255 0.0 4.0 0.00 0.00 0.00 57 1011.8
20260508021148 49 332 2.0 4.0 0.00 0.00 0.00 57 1012.1
20260508021137 49 315 2.0 4.0 0.00 0.00 0.00 57 1012.1
20260508021133 49 238 1.0 4.0 0.00 0.00 0.00 56 1011.8
20260508021125 49 306 1.0 4.0 0.00 0.00 0.00 57 1011.8
20260508020901 49 351 1.0 4.0 0.00 0.00 0.00 56 1011.8
20260508020853 49 16 1.0 4.0 0.00 0.00 0.00 56 1011.8
20260508020631 49 227 0.0 4.0 0.00 0.00 0.00 56 1011.8
20260508020622 49 314 0.0 4.0 0.00 0.00 0.00 56 1012.1
20260508020403 49 314 0.0 4.0 0.00 0.00 0.00 56 1011.8
20260508020354 49 317 0.0 4.0 0.00 0.00 0.00 56 1012.1
20260508020346 49 307 0.0 4.0 0.00 0.00 0.00 58 1011.8
20260508020124 49 219 0.0 4.0 0.00 0.00 0.00 56 1012.1
20260508020116 49 193 0.0 4.0 0.00 0.00 0.00 55 1011.8
20260508015855 49 161 0.0 4.0 0.00 0.00 0.00 56 1012.1
20260508015847 49 322 2.0 4.0 0.00 0.00 0.00 55 1012.1
20260508015838 49 326 3.0 4.0 0.00 0.00 0.00 54 1011.8
20260508015617 49 328 2.0 4.0 0.00 0.00 0.00 53 1012.1
20260508015608 49 330 4.0 4.0 0.00 0.00 0.00 53 1012.1
20260508015345 49 338 2.0 3.0 0.00 0.00 0.00 54 1011.8
20260508015336 49 315 1.0 1.0 0.00 0.00 0.00 54 1011.8
20260508015115 49 336 1.0 1.0 0.00 0.00 0.00 54 1011.8
20260508015107 49 327 1.0 1.0 0.00 0.00 0.00 54 1011.8
20260508015058 49 330 0.0 1.0 0.00 0.00 0.00 54 1011.8
20260508014826 49 330 1.0 3.0 0.00 0.00 0.00 53 1011.8
20260508014817 49 313 0.0 6.0 0.00 0.00 0.00 53 1011.8
20260508014552 49 314 0.0 6.0 0.00 0.00 0.00 53 1011.8
20260508014547 49 304 0.0 9.0 0.00 0.00 0.00 53 1012.1
20260508014538 49 336 1.0 9.0 0.00 0.00 0.00 53 1011.8
20260508014319 49 340 0.0 9.0 0.00 0.00 0.00 53 1011.8
20260508014310 50 323 0.0 9.0 0.00 0.00 0.00 52 1011.4
20260508014302 50 313 1.0 9.0 0.00 0.00 0.00 52 1011.4
20260508013955 50 271 0.0 9.0 0.00 0.00 0.00 52 1011.8
20260508013849 50 289 0.0 9.0 0.00 0.00 0.00 51 1011.8
20260508013743 50 283 3.0 9.0 0.00 0.00 0.00 51 1011.8
20260508013637 49 281 4.0 9.0 0.00 0.00 0.00 52 1011.8
20260508013532 49 218 6.0 9.0 0.00 0.00 0.00 53 1011.8
20260508013426 49 258 0.0 0.0 0.00 0.00 0.00 52 1011.8
20260508013320 49 224 0.0 0.0 0.00 0.00 0.00 52 1011.4
20260508013215 49 223 0.0 0.0 0.00 0.00 0.00 52 1011.8
20260508013108 49 223 0.0 0.0 0.00 0.00 0.00 52 1011.8
20260508013031 49 224 0.0 0.0 0.00 0.00 0.00 51 1011.4
20260508013003 49 224 0.0 0.0 0.00 0.00 0.00 51 1011.4
20260508012857 49 209 0.0 0.0 0.00 0.00 0.00 51 1011.4
20260508012750 49 227 0.0 0.0 0.00 0.00 0.00 52 1011.4
20260508012646 49 277 0.0 0.0 0.00 0.00 0.00 52 1011.8
20260508012524 49 238 0.0 0.0 0.00 0.00 0.00 52 1011.4
20260508012434 49 205 0.0 0.0 0.00 0.00 0.00 53 1011.4
20260508012327 49 224 0.0 0.0 0.00 0.00 0.00 53 1011.8
20260508012222 49 271 0.0 0.0 0.00 0.00 0.00 52 1011.8
20260508012116 49 273 0.0 0.0 0.00 0.00 0.00 52 1011.4
20260508012011 49 277 0.0 0.0 0.00 0.00 0.00 52 1011.8
20260508011905 49 277 0.0 0.0 0.00 0.00 0.00 52 1011.4
20260508011759 49 278 0.0 0.0 0.00 0.00 0.00 51 1011.4
20260508011654 49 284 0.0 0.0 0.00 0.00 0.00 52 1011.4
20260508011548 49 280 0.0 0.0 0.00 0.00 0.00 52 1011.4
20260508011510 49 280 0.0 0.0 0.00 0.00 0.00 52 1011.4
20260508011442 49 291 0.0 0.0 0.00 0.00 0.00 52 1011.4
20260508011336 49 292 0.0 0.0 0.00 0.00 0.00 51 1011.4
20260508011230 49 296 0.0 0.0 0.00 0.00 0.00 51 1011.4
20260508011125 49 307 0.0 0.0 0.00 0.00 0.00 51 1011.4
20260508011004 49 306 0.0 0.0 0.00 0.00 0.00 51 1011.1
20260508010913 49 313 0.0 0.0 0.00 0.00 0.00 51 1011.4
20260508010808 49 285 0.0 0.0 0.00 0.00 0.00 51 1011.4
20260508010702 49 284 0.0 0.0 0.00 0.00 0.00 51 1011.1
20260508010557 49 277 0.0 0.0 0.00 0.00 0.00 51 1011.1
20260508010452 49 271 0.0 0.0 0.00 0.00 0.00 51 1011.1
20260508010346 49 272 0.0 0.0 0.00 0.00 0.00 51 1011.1
20260508010240 49 272 0.0 0.0 0.00 0.00 0.00 51 1011.1
20260508010134 49 272 0.0 0.0 0.00 0.00 0.00 51 1011.1
20260508010028 49 272 0.0 0.0 0.00 0.00 0.00 51 1011.1
20260508005922 49 272 0.0 0.0 0.00 0.00 0.00 51 1011.1
20260508005816 49 298 0.0 0.0 0.00 0.00 0.00 51 1011.1
20260508005711 49 298 0.0 0.0 0.00 0.00 0.00 52 1011.1
20260508005605 50 298 0.0 0.0 0.00 0.00 0.00 51 1011.1
20260508005444 50 298 0.0 0.0 0.00 0.00 0.00 51 1011.1
20260508005354 50 298 0.0 0.0 0.00 0.00 0.00 51 1011.1
20260508005248 50 298 0.0 0.0 0.00 0.00 0.00 50 1010.8
20260508005142 50 309 0.0 0.0 0.00 0.00 0.00 50 1011.1
20260508005036 50 249 0.0 0.0 0.00 0.00 0.00 50 1011.1
20260508004930 50 249 0.0 0.0 0.00 0.00 0.00 50 1011.1
20260508004824 50 244 0.0 0.0 0.00 0.00 0.00 50 1011.1
20260508004720 50 277 0.0 2.0 0.00 0.00 0.00 50 1010.8
20260508004614 50 300 0.0 4.0 0.00 0.00 0.00 49 1011.1
20260508004508 50 278 0.0 4.0 0.00 0.00 0.00 50 1011.1
20260508004430 50 273 0.0 4.0 0.00 0.00 0.00 51 1011.1
20260508004402 50 272 0.0 4.0 0.00 0.00 0.00 50 1011.1
20260508004257 50 272 0.0 4.0 0.00 0.00 0.00 49 1010.8
20260508004151 50 282 0.0 4.0 0.00 0.00 0.00 49 1011.1
20260508004046 50 221 0.0 4.0 0.00 0.00 0.00 49 1011.1
20260508003940 50 263 0.0 4.0 0.00 0.00 0.00 50 1011.1
20260508003924 50 267 0.0 4.0 0.00 0.00 0.00 50 1011.1
20260508003835 51 338 0.0 4.0 0.00 0.00 0.00 50 1011.1
20260508003728 51 321 1.0 4.0 0.00 0.00 0.00 49 1011.1
20260508003623 51 243 0.0 3.0 0.00 0.00 0.00 49 1011.1
20260508003517 51 247 0.0 4.0 0.00 0.00 0.00 49 1010.8
20260508003411 51 258 0.0 4.0 0.00 0.00 0.00 49 1011.1
20260508003306 51 259 1.0 4.0 0.00 0.00 0.00 49 1011.1
20260508003200 51 269 1.0 4.0 0.00 0.00 0.00 49 1011.1
20260508003055 51 263 1.0 4.0 0.00 0.00 0.00 49 1011.1
20260508002949 51 240 0.0 4.0 0.00 0.00 0.00 49 1011.1
20260508002911 51 281 0.0 4.0 0.00 0.00 0.00 50 1011.1
20260508002843 51 285 0.0 4.0 0.00 0.00 0.00 50 1011.1
20260508002737 51 298 1.0 4.0 0.00 0.00 0.00 49 1011.1
20260508002631 51 264 1.0 4.0 0.00 0.00 0.00 48 1011.1
20260508002526 51 253 3.0 4.0 0.00 0.00 0.00 48 1011.1
20260508002421 51 265 2.0 3.0 0.00 0.00 0.00 48 1011.1
20260508002405 51 258 2.0 3.0 0.00 0.00 0.00 48 1011.1
20260508002316 51 279 0.0 4.0 0.00 0.00 0.00 49 1011.1
20260508002209 51 256 0.0 6.0 0.00 0.00 0.00 49 1011.1
20260508002106 51 259 1.0 6.0 0.00 0.00 0.00 49 1011.1
20260508002000 51 239 1.0 6.0 0.00 0.00 0.00 49 1010.8
20260508001901 51 278 0.0 6.0 0.00 0.00 0.00 48 1011.1
20260508001854 51 229 0.0 6.0 0.00 0.00 0.00 49 1011.1
20260508001748 51 304 1.0 6.0 0.00 0.00 0.00 49 1011.1
20260508001643 51 243 0.0 6.0 0.00 0.00 0.00 49 1011.1
20260508001537 51 329 1.0 6.0 0.00 0.00 0.00 49 1011.1
20260508001432 51 225 0.0 6.0 0.00 0.00 0.00 48 1011.1
20260508001355 51 229 2.0 6.0 0.00 0.00 0.00 48 1011.1
20260508001326 51 354 3.0 6.0 0.00 0.00 0.00 47 1011.1
20260508001221 51 273 1.0 4.0 0.00 0.00 0.00 48 1010.8
20260508001115 51 261 1.0 4.0 0.00 0.00 0.00 48 1011.1
20260508001010 51 142 1.0 4.0 0.00 0.00 0.00 49 1010.8
20260508000848 51 9 0.0 4.0 0.00 0.00 0.00 49 1011.1
20260508000758 51 315 1.0 4.0 0.00 0.00 0.00 49 1010.8
20260508000652 51 229 1.0 4.0 0.00 0.00 0.00 48 1010.8